     2              OBSERVATION DATA    GPS                 RINEX VERSION / TYPE
srx v1.3 (5/19/93) STARR 93/10/11 17:38:23                  PGM / RUN BY / DATE
                                                            COMMENT
sig: 9 8 7 6 5 4 1 0                                        COMMENT
sig: 9 8 7 6 5 4 1 0                                        COMMENT
sig: 9 8 7 6 5 4 1 0                                        COMMENT
Original Marker Name: 3082                                  COMMENT
Campaign Name: Baja (Dixon) 1993                            COMMENT
4-Character Station Name: 3082                              COMMENT
6-Character Antenna Code: DMRCHT                            COMMENT
Vertical Measurement Point: BCR                             COMMENT
Vertical Offset to Rinex Ref. Point: 0.0348                 COMMENT
Radial Measurement Point: ECF                               COMMENT
Radial Offset to Rinex Ref. Point: 0.1897                   COMMENT
Antenna Height from Field Measurement: 0.8370 m             COMMENT
Additional Antenna Identification Info.:                    COMMENT
Turborogue and Ashtech Choke Ring                           COMMENT
Original XYZ: -2493309.0382 -4655182.3466 3565500.9443      COMMENT
New XYZ position is based on association with SCEC monument COMMENT
E1C8K3O2+0011. Position of that monument is believed to be  COMMENT
valid to within 1 m horizontally; vertical accuracy         COMMENT
should be no worse than 3-times this value.                 COMMENT
                                                            COMMENT
Revised Rinex header created by UCSD GPS archive for        COMMENT
GSAC on 09-Nov-2004 (2004:314) 22:02:17 GMT                 COMMENT
For assistance contact dagnew@ucsd.edu                      COMMENT
or anderson@python.ucsd.edu                                 COMMENT
                                                            COMMENT
3082S                                                       MARKER NAME
THE OBSERVER WAS?___JET PROPULSION LABORATORY               OBSERVER / AGENCY
123 TURBOROGUE SNR-8000 100.1                               REC # / TYPE / VERS
123 DORNE-MARGOL. TYPE T                                    ANT # / TYPE
 -2375983.0000 -4835300.0000  3404909.0000                  APPROX POSITION XYZ
        0.7804        0.0000        0.0000                  ANTENNA: DELTA H/E/N
     1     1     0                                          WAVELENGTH FACT L1/2
     4    L1    L2    P1    P2                              # / TYPES OF OBSERV
   120                                                      INTERVAL
  1993     4    16    14     6    0.000000                  TIME OF FIRST OBS
  1993     4    16    23     2    0.000000                  TIME OF LAST OBS
    20                                                      # OF SATELLITES
          01   186   186   186   186                        PRN / # OF OBS
          02   689   689   689   689                        PRN / # OF OBS
          11   558   558   558   558                        PRN / # OF OBS
          12     5     5     5     5                        PRN / # OF OBS
          13   270   270   270   270                        PRN / # OF OBS
          14   662   662   662   662                        PRN / # OF OBS
          15   732   732   732   732                        PRN / # OF OBS
          16   182   182   182   182                        PRN / # OF OBS
          18  1049  1049  1049  1049                        PRN / # OF OBS
          19  1165  1165  1165  1165                        PRN / # OF OBS
          20    20    20    20    20                        PRN / # OF OBS
          21    25    25    25    25                        PRN / # OF OBS
          22   629   629   629   629                        PRN / # OF OBS
          24    25    25    25    25                        PRN / # OF OBS
          25   371   371   371   371                        PRN / # OF OBS
          26   308   308   308   308                        PRN / # OF OBS
          27   963   963   963   963                        PRN / # OF OBS
          28   568   568   568   568                        PRN / # OF OBS
          29   906   906   906   906                        PRN / # OF OBS
                                                            END OF HEADER
 93 04 16 14 06 00.0000000  0  6 29 14 22 25 15 01
        -0.33318        -0.38718  22257850.33818  22257850.00418
        -0.34918        -0.20818  21161574.40518  21161574.56718
        -0.48318        -0.24218  22523196.11518  22523196.79518
         0.42218         0.13918  21183163.98818  21183163.51018
        -0.54918        -0.30218  21697663.55318  21697663.94918
        -0.25718        -0.54718  24207241.46418  24207243.05418
 93 04 16 14 08 00.0000000  0  6 29 14 22 25 15 01
   -362757.50108   -282668.36208  22188819.99308  22188819.67108
   -438321.79608   -341549.42608  21078164.73108  21078164.86608
   -470302.78308   -366469.55408  22433700.56608  22433701.31708
     86044.42408     67047.30108  21199537.79808  21199537.27808
    112791.02008     87889.09008  21719127.08608  21719127.59308
    104630.63008     81529.68608  24227152.19308  24227154.01408
 93 04 16 14 10 00.0000000  0  7 29 22 25 15 01 18 14
   -724272.38908   -564368.32008  22120026.07108  22120025.67108
   -936195.63608   -729502.91608  22345043.99608  22345044.86708
    177230.30308    138101.11708  21216889.94308  21216889.49808
    231682.89808    180531.96508  21741751.59708  21741752.17308
    208864.89208    162750.86408  24246987.60208  24246989.40908
        -0.63617        -0.58317  25036219.77917  25036220.69217
   -872399.09308   -679791.52308  20995562.60608  20995562.82408
 93 04 16 14 12 00.0000000  0  7 29 22 25 15 01 18 14
  -1084174.32508   -844811.43208  22051539.00408  22051538.65208
  -1397264.44108  -1088777.27208  22257305.68008  22257306.28008
    273264.70108    212932.99008  21235164.70608  21235164.37408
    356700.53508    277948.15508  21765541.77508  21765542.45208
    312782.33308    243725.14808  24266762.86008  24266764.75508
   -476255.02807   -371108.07007  24945591.62307  24945592.70507
  -1301981.95408  -1014531.45608  20913815.70208  20913815.97808
 93 04 16 14 14 00.0000000  0  7 29 22 25 15 01 18 14
  -1439371.92508  -1121588.82708  21983947.23408  21983946.79708
  -1850022.94908  -1441576.08208  22171148.57908  22171149.32908
    377906.67008    294472.04908  21255077.51908  21255077.23908
    490939.84708    382550.05708  21791086.77808  21791087.36308
    420163.39008    327398.32708  24287197.09608  24287199.18008
   -948879.76407   -739387.24507  24855654.27207  24855655.33107
  -1723363.81308  -1342880.98508  20833629.42708  20833629.70208
 93 04 16 14 16 00.0000000  0  7 29 22 25 15 01 18 14
  -1789984.97308  -1394793.83608  21917227.88208  21917227.39608
  -2294189.35908  -1787679.75308  22086626.40108  22086627.21508
    490783.07308    382427.55108  21276557.29408  21276556.99708
    634292.61108    494253.34808  21818366.10408  21818366.69208
    531059.97508    413810.88908  24308300.26308  24308302.37308
  -1417725.80507  -1104721.94307  24766435.91907  24766437.01807
  -2135906.92308  -1664343.16508  20755125.11808  20755125.32408
 93 04 16 14 18 00.0000000  0  7 29 22 25 15 01 18 14
  -2136798.22808  -1665037.97608  21851231.53808  21851231.08008
  -2730473.33008  -2127641.29608  22003604.42008  22003605.08408
    610839.90808    475978.18408  21299403.47308  21299403.22908
    785656.85308    612199.35608  21847169.84508  21847170.45408
    644401.81208    502128.83908  24329869.09108  24329870.87708
  -1883702.97807  -1467821.23807  24677763.63407  24677764.63507
  -2540977.64208  -1979982.71708  20678042.78808  20678042.97308
 93 04 16 14 20 00.0000000  0  7 29 22 25 15 01 18 14
  -2479761.13108  -1932281.83308  21785967.93508  21785967.55408
  -3158920.71208  -2461496.41308  21922073.63808  21922074.24808
    737812.37708    574917.61808  21323565.68108  21323565.43708
    944596.61608    736048.37108  21877415.16508  21877415.94208
    759788.24608    592039.98408  24351826.38708  24351828.61508
  -2347599.72707  -1829299.31407  24589486.87907  24589488.19707
  -2938766.23108  -2289947.87708  20602346.11708  20602346.36308
 93 04 16 14 22 00.0000000  0  7 29 22 25 15 01 18 14
  -2818827.73008  -2196489.60708  21721445.75508  21721445.29508
  -3579083.00108  -2788895.60908  21842119.37408  21842120.05508
    871626.41808    679188.15108  21349029.80108  21349029.63708
   1111169.58508    865845.34408  21909113.08808  21909113.94408
    877434.40408    683711.91308  24374213.85608  24374216.43308
  -2808570.43508  -2188497.39007  24501767.35908  24501768.39807
  -3328603.84408  -2593717.47708  20528162.54308  20528162.77208
 93 04 16 14 24 00.0000000  0  7 29 22 25 15 01 18 14
  -3154665.18008  -2458181.15208  21657537.91408  21657537.50108
  -3991442.53308  -3110214.71108  21763650.03208  21763650.58308
   1011529.00308    788203.01708  21375652.51608  21375652.31208
   1284505.51108   1000912.13808  21942097.95508  21942098.84408
    997034.26108    776906.22007  24396973.37408  24396975.87207
  -3267216.00308  -2545883.65107  24414490.24708  24414491.03907
  -3710762.10109  -2891503.16708  20455440.26309  20455440.59808
 93 04 16 14 26 00.0000000  0  7 29 22 25 15 01 18 14
  -3486774.45708  -2716967.61308  21594339.63508  21594339.31008
  -4395266.79208  -3424882.90108  21686804.76708  21686805.43308
   1158209.20908    902499.15508  21403564.85508  21403564.80408
   1464948.48108   1141516.87608  21976435.29408  21976436.17708
   1119161.30707    872069.70607  24420213.56907  24420216.48607
  -3723699.92608  -2901585.45907  24327624.33408  24327625.32907
  -4084829.88109  -3182984.57908  20384257.52509  20384257.86508
 93 04 16 14 28 00.0000000  0  7 29 22 25 15 01 14 18
  -3815131.40708  -2972830.20308  21531855.45208  21531855.00408
  -4790335.74108  -3732728.74708  21611625.49708  21611626.17608
   1311564.44508   1021996.58608  21432747.43008  21432747.48008
   1652333.44208   1287530.93908  22012093.59708  22012094.60108
   1243780.49907    969175.10307  24443928.30607  24443931.01307
  -4450411.79909  -3467853.62208  20314689.57009  20314689.96608
  -4177773.55008  -3255409.12107  24241216.87608  24241217.97007
 93 04 16 14 30 00.0000000  0  7 29 22 25 15 01 14 18
  -4139242.90208  -3225384.64708  21470179.15708  21470178.66208
  -5175996.76408  -4033243.73908  21538236.65108  21538237.30008
   1471544.33108   1146656.08208  21463190.66608  21463190.57508
   1846927.86108   1439162.76308  22049123.78208  22049124.68208
   1371341.70807   1068573.00907  24468202.56207  24468205.68707
  -4807211.27909  -3745879.21508  20246792.96609  20246793.30408
  -4628513.13807  -3606634.83308  24155443.90307  24155445.29008
 93 04 16 14 32 00.0000000  0  6 29 22 25 01 18 14
  -4460213.40108  -3475491.56208  21409100.50108  21409100.15008
  -5552986.28408  -4327001.73808  21466497.89108  21466498.50408
   1637073.76808   1275639.89508  21494690.11108  21494690.05708
   1500823.09907   1169467.09807  24492842.46407  24492845.45607
  -5077070.32708  -3956159.92308  24070086.42308  24070087.62108
  -5156322.34409  -4017913.84808  20180359.36609  20180359.68408
 93 04 16 14 34 00.0000000  0  6 29 22 25 01 14 18
  -4777839.51408  -3722992.45108  21348658.29308  21348657.96408
  -5921551.09408  -4614195.05008  21396362.23308  21396362.82608
   1807662.03808   1408565.66508  21527152.15308  21527152.16608
   1632083.28007   1271747.30707  24517820.77507  24517823.70707
  -5496967.35509  -4283351.55208  20115536.76609  20115537.15608
  -5523890.12207  -4304331.26307  23985059.39107  23985060.64907
 93 04 16 14 36 00.0000000  0  7 29 22 25 15 14 01 18
  -5090821.15008  -3966874.26408  21289099.92108  21289099.58508
  -6279953.36008  -4893469.51208  21328160.55408  21328161.19708
   1984928.62208   1546695.31308  21560885.01508  21560885.03408
        -0.06018        -0.38418  22167072.39218  22167073.43218
  -5827597.42109  -4540985.39808  20052620.05409  20052620.41108
   1766465.58307   1376460.31507  24543393.34607  24543396.20607
  -5967138.80407  -4649719.90607  23900712.18807  23900713.47507
 93 04 16 14 38 00.0000000  0  7 29 22 25 15 14 01 18
  -5398929.34308  -4206958.60308  21230468.97008  21230468.60408
  -6627310.89708  -5164137.70808  21262060.56508  21262061.28708
   2169142.34108   1690238.30608  21595939.79508  21595940.00008
    220324.26108    171680.68508  22208998.92808  22209000.07308
  -6147880.01709  -4790556.27808  19991672.31909  19991672.67408
   1904838.57407   1484282.93207  24569725.24907  24569727.91807
  -6406301.25907  -4991924.46507  23817142.39007  23817143.75007
 93 04 16 14 40 00.0000000  0  7 29 22 25 15 14 01 18
  -5702012.42108  -4443127.26008  21172794.13608  21172793.86408
  -6963702.54308  -5426261.05508  21198047.41208  21198048.20008
   2360299.58508   1839191.83408  21632315.98108  21632315.96808
    447543.48708    348734.39708  22252237.52708  22252238.64108
  -6457836.74709  -5032081.02808  19932689.51609  19932689.92208
   2046785.06507   1594890.13107  24596737.01507  24596740.07707
  -6841945.05107  -5331387.21707  23734242.01307  23734243.53407
 93 04 16 14 42 00.0000000  0  7 29 22 25 15 14 01 18
  -6000085.05908  -4675391.68508  21116072.78408  21116072.54408
  -7289143.05508  -5679851.05708  21136118.13208  21136118.76208
   2558147.59908   1993358.94308  21669965.33308  21669965.53508
    681280.60808    530866.99108  22296716.31508  22296717.47008
  -6757417.47809  -5265520.59008  19875681.32009  19875681.69308
   2192759.41407   1708635.98207  24624515.70907  24624518.89007
  -7274041.49308  -5668085.79108  23652017.05008  23652018.38408
 93 04 16 14 44 00.0000000  0  7 29 22 25 15 14 01 18
  -6293896.10708  -4904335.39808  21060162.46808  21060162.27508
  -7603811.81308  -5925047.46708  21076238.63008  21076239.28008
   2761671.51608   2151948.80708  21708694.71808  21708695.02608
    920995.76608    717657.78408  22342332.91408  22342334.12408
  -7047061.55409  -5491217.30608  19820563.87009  19820564.23708
   2341845.02207   1824806.21407  24652885.90507  24652889.53007
  -7702815.07008  -6002195.09608  23570424.09208  23570425.58008
 93 04 16 14 46 00.0000000  0  7 22 25 15 18 01 14 29
  -7908181.92408  -6162218.94808  21018318.97108  21018319.50608
   2970327.70008   2314537.83808  21748400.74508  21748401.11708
   1165864.09408    908464.02508  22388929.87708  22388931.17808
  -8128900.13408  -6334209.46008  23489342.91208  23489344.22508
   2493353.57007   1942864.43507  24681717.05507  24681720.89007
  -7326745.77809  -5709153.10208  19767341.77109  19767342.11108
  -6583553.40108  -5130042.41108  21005042.59908  21005042.39808
 93 04 16 14 48 00.0000000  0  7 25 15 18 01 14 29 22
   3184656.70908   2481547.25308  21789186.34608  21789186.94408
   1416057.22408   1103419.45608  22436540.24908  22436541.56208
  -8551710.77808  -6663672.35608  23408884.61408  23408886.12208
   2648319.03507   2063616.37707  24711206.63407  24711210.19707
  -7595967.84409  -5918936.56308  19716110.58109  19716110.94008
  -6868626.73608  -5352177.51308  20950794.98308  20950794.72908
  -8201733.47408  -6390960.39008  20962458.02508  20962458.55408
 93 04 16 14 50 00.0000000  0  7 25 15 18 01 14 29 22
   3402125.97008   2651003.62608  21830569.49508  21830570.13508
   1669165.64108   1300646.51708  22484705.37608  22484706.91608
  -8973593.20008  -6992411.91508  23328603.15608  23328604.61208
   2804288.69107   2185150.76707  24740887.10907  24740890.80107
  -7857248.03209  -6122531.55708  19666390.62009  19666390.98408
  -7151508.13408  -5572604.59208  20896964.38908  20896964.15708
  -8486534.28108  -6612883.06108  20908262.19208  20908262.75208
 93 04 16 14 52 00.0000000  0  7 25 15 18 01 14 29 22
   3623374.30108   2823404.71408  21872671.93608  21872672.52308
   1925952.39708   1500739.80608  22533570.59608  22533572.21908
  -9393838.49808  -7319875.76408  23248633.09008  23248634.49108
   2961936.44507   2307992.71507  24770886.50207  24770890.33307
  -8109671.11409  -6319224.90408  19618356.13309  19618356.50708
  -7431561.11308  -5790827.72208  20843672.14008  20843671.86108
  -8761484.30108  -6827129.79008  20855940.92508  20855941.42008
 93 04 16 14 54 00.0000000  0  7 25 15 18 01 14 29 22
   3850042.17808   3000028.82108  21915805.51908  21915806.19208
   2187616.72108   1704633.80708  22583363.80408  22583365.44208
  -9810616.18508  -7644637.55708  23169323.15208  23169324.26608
   3122853.18607   2433381.95707  24801508.47307  24801512.48607
  -8351085.54109  -6507340.07608  19572416.62309  19572416.95608
  -7707179.88208  -6005595.61408  20791223.67008  20791223.36008
  -9025053.30108  -7032508.20008  20805785.31308  20805785.94208
 93 04 16 14 56 00.0000000  0  7 25 14 15 01 29 22 18
   4081063.02008   3180044.82808  21959767.56208  21959768.15308
  -8582252.01809  -6687469.84008  19528427.06309  19528427.43608
   2453248.00708   1911618.93808  22633911.88008  22633913.52808
   3286377.07907   2560802.53407  24832626.58107  24832630.58807
  -7978684.00308  -6217157.30508  20739558.23308  20739557.88108
  -9277829.63908  -7229476.76308  20757683.60308  20757684.12208
 -10224891.90808  -7967449.79308  23090488.91908  23090490.09708
 93 04 16 14 58 00.0000000  0  8 25 15 14 01 29 22 18 19
   4316182.76208   3363254.77308  22004509.47308  22004510.23908
   2722369.06608   2121323.38308  22685124.17608  22685125.92608
  -8803480.99509  -6859856.09708  19486328.61709  19486329.06608
   3452446.35307   2690206.64407  24864228.82507  24864232.89907
  -8246677.22908  -6425983.22608  20688560.84008  20688560.52608
  -9519973.47008  -7418160.26908  20711605.08608  20711605.71308
 -10636768.95508  -8288392.94008  23012111.34008  23012112.70308
        -0.08417         0.13117  24241121.54417  24241124.50917
 93 04 16 15 00 00.0000000  0  8 25 14 15 01 29 22 18 19
   4555174.27508   3549481.65808  22049988.30008  22049989.30108
  -9014649.84809  -7024403.30008  19446144.53609  19446144.99208
   2994730.78008   2333552.99008  22736953.15408  22736955.06308
   3620794.99807   2821386.89507  24896264.80307  24896268.79907
  -8511052.10008  -6631989.65308  20638251.94508  20638251.72008
  -9751425.26308  -7598512.33508  20667561.34008  20667561.93208
 -11046531.12208  -8607688.13408  22934136.16508  22934137.42908
   -495432.83408   -386051.26507  24146843.69108  24146846.45607
 93 04 16 15 02 00.0000000  0  8 25 15 14 29 22 01 18 19
   4798649.61008   3739202.41508  22096320.35508  22096321.11708
   3270936.72608   2548778.10308  22789513.52208  22789515.56508
  -9214874.60909  -7180422.65108  19408043.16709  19408043.58808
  -8770787.47308  -6834380.90308  20588825.96708  20588825.79908
  -9971278.62708  -7769826.65508  20625724.61708  20625725.24008
   3792344.65407   2955061.56307  24928909.78307  24928914.03107
 -11453222.54508  -8924590.52008  22856745.45708  22856746.54308
   -985932.61508   -768258.73107  24053504.47708  24053507.39807
 93 04 16 15 04 00.0000000  0  8 25 15 14 29 22 01 18 19
   5046626.04208   3932430.52008  22143509.00508  22143509.89308
   3551203.19108   2767167.24508  22842846.86208  22842848.84808
  -9403341.76209  -7327280.22808  19372179.07909  19372179.49508
  -9025752.92908  -7033055.31808  20540307.76108  20540307.56908
 -10179021.37208  -7931704.11008  20586192.63908  20586193.12908
   3967433.87707   3091494.30707  24962228.60107  24962233.19007
 -11856356.02508  -9238720.46608  22780031.64008  22780032.78208
  -1471384.32108  -1146532.62207  23961126.14508  23961128.93307
 93 04 16 15 06 00.0000000  0  7 25 15 14 18 19 29 22
   5298815.09008   4128941.15108  22191499.33008  22191500.19108
   3834631.50408   2988020.15908  22896781.67308  22896783.78408
  -9580974.59909  -7465695.47508  19338376.72209  19338377.19708
 -12256429.42208  -9550465.88808  22703900.25108  22703901.37108
  -1951978.67008  -1521021.59007  23869672.03608  23869674.88707
  -9276339.52808  -7228317.62708  20492622.75308  20492622.51908
 -10375264.82108  -8084621.08408  20548848.68708  20548849.24208
 93 04 16 15 08 00.0000000  0  7 25 15 14 18 29 22 19
   5553514.89808   4327408.22708  22239967.27708  22239968.18708
   4119656.00908   3210116.82508  22951020.26408  22951022.50508
  -9748996.85409  -7596621.96008  19306403.16309  19306403.67908
 -12655180.26308  -9861180.78608  22628020.31508  22628021.73108
  -9524237.71208  -7421485.06308  20445449.34708  20445449.10908
 -10561297.81508  -8229581.86508  20513447.72908  20513448.35508
  -2428853.96908  -1892612.61107  23778925.43808  23778928.21007
 93 04 16 15 10 00.0000000  0  7 25 15 14 18 29 22 19
   5812787.57908   4529438.58508  22289305.58708  22289306.56208
   4408388.31108   3435102.67708  23005964.37908  23005966.94908
  -9905104.23209  -7718264.12708  19276697.01609  19276697.54708
 -13050306.02308 -10169070.92908  22552830.46108  22552831.69008
  -9766740.14308  -7610448.02308  20399302.65408  20399302.43408
 -10734736.26108  -8364728.71008  20480443.51808  20480444.20808
  -2899946.19208  -2259697.32907  23689279.51308  23689282.23707
 93 04 16 15 12 00.0000000  0  7 25 15 14 18 29 22 19
   6075936.92208   4734489.69008  22339381.45708  22339382.48208
   4699725.34508   3662118.17008  23061404.22108  23061406.85808
 -10049918.48709  -7831106.46308  19249139.76909  19249140.23708
 -13442451.54308 -10474638.84208  22478207.53208  22478208.85908
 -10005179.13608  -7796244.67208  20353929.28508  20353929.01608
 -10896421.97408  -8490717.59008  20449675.81308  20449676.48408
  -3365700.45907  -2622622.67107  23600648.95807  23600652.06107
 93 04 16 15 14 00.0000000  0  7 25 15 14 18 29 22 19
   6341626.83708   4941520.46908  22389940.76208  22389941.73308
   4992710.10308   3890417.61008  23117157.87808  23117160.26308
 -10184530.97809  -7935999.37408  19223523.94009  19223524.46508
 -13832346.47308 -10778453.03608  22404012.97108  22404014.25008
 -10240075.44708  -7979280.80208  20309230.07808  20309229.78008
 -11047055.94808  -8608094.74908  20421011.08908  20421011.76308
  -3827063.91608  -2982126.62207  23512854.58908  23512857.39407
 93 04 16 15 16 00.0000000  0  7 25 15 14 18 29 22 19
   6611627.56008   5151910.29908  22441320.28308  22441321.60408
   5288810.83908   4121145.09208  23173504.18808  23173506.81308
 -10306559.22809  -8031086.38508  19200302.79709  19200303.34408
 -14218322.55808 -11079213.56808  22330564.26008  22330565.33508
 -10469283.32808  -8157884.38008  20265613.22408  20265612.94408
 -11184926.03908  -8715526.03808  20394775.41808  20394776.02508
  -4282310.81208  -3336864.42907  23426223.99008  23426226.92107
 93 04 16 15 18 00.0000000  0  7 25 15 14 18 29 22 19
   6885706.73408   5365478.13808  22493476.08708  22493477.68808
   5587529.84108   4353912.76608  23230349.00808  23230351.49708
 -10416303.40409  -8116601.40508  19179419.18309  19179419.73508
 -14600882.19108 -11377311.94808  22257765.59808  22257766.68508
 -10693411.32408  -8332529.59608  20222963.09508  20222962.93508
 -11310293.65608  -8813215.14108  20370918.79908  20370919.41408
  -4731829.52808  -3687138.67107  23340683.63008  23340686.24407
 93 04 16 15 20 00.0000000  0  7 25 15 14 18 29 22 19
   7162529.79908   5581184.07708  22546153.84508  22546155.67608
   5887786.80408   4587878.78108  23287486.28508  23287489.04308
 -10515462.73909  -8193868.48208  19160549.88209  19160550.43608
 -14980475.67508 -11673099.01808  22185531.20108  22185532.36908
 -10913339.53508  -8503902.26308  20181112.20308  20181111.97808
 -11424010.91108  -8901826.01508  20349279.16208  20349279.71308
  -5176690.44508  -4033783.45808  23256029.43108  23256031.95008
 93 04 16 15 22 00.0000000  0  7 25 15 14 18 29 22 19
   7442801.18308   5799577.00208  22599488.18208  22599489.66608
   6189799.81108   4823213.20907  23344957.71308  23344960.31907
 -10602994.32409  -8262074.98908  19143893.23009  19143893.81308
 -15357012.29008 -11966504.11508  22113878.64008  22113879.90908
 -11129013.85708  -8671960.22308  20140070.80508  20140070.59408
 -11525640.23408  -8981017.70208  20329939.76408  20329940.35408
  -5615587.57408  -4375781.06808  23172509.84308  23172512.50408
 93 04 16 15 24 00.0000000  0  7 25 15 18 14 29 22 19
   7725233.47208   6019653.73708  22653233.63508  22653235.20308
   6492316.37707   5058939.99807  23402524.69607  23402527.82607
 -15731594.30308 -12258386.17208  22042598.11708  22042599.32008
 -10679796.92709  -8321921.24908  19129278.25909  19129278.92008
 -11340729.42308  -8836933.42308  20099782.71008  20099782.48608
 -11616224.90008  -9051603.17708  20312702.01908  20312702.71308
  -6049812.69308  -4714138.12008  23089879.34908  23089882.04808
 93 04 16 15 26 00.0000000  0  7 18 25 15 14 29 22 19
 -16104681.34808 -12549103.28708  21971601.94508  21971603.20108
   8008875.33008   6240672.95708  22707209.21608  22707210.83508
   6794662.54308   5294533.92707  23460059.79308  23460062.79307
 -10746269.77509  -8373718.34308  19116628.91809  19116629.62908
 -11549241.03308  -8999410.03808  20060104.27508  20060104.12408
 -11696239.63508  -9113952.36808  20297475.76508  20297476.39608
  -6480652.67008  -5049857.44308  23007893.13008  23007895.66408
 93 04 16 15 28 00.0000000  0  7 18 25 15 14 29 22 19
 -16474827.32108 -12837528.66708  21901165.46808  21901166.48708
   8295317.52308   6463874.27408  22761717.82908  22761719.46908
   7098029.27807   5530923.11707  23517788.96907  23517792.03307
 -10801385.63409  -8416665.84208  19106140.84409  19106141.48008
 -11753177.54008  -9158321.62508  20021296.49708  20021296.35608
 -11764304.37308  -9166989.89408  20284523.50408  20284524.23408
  -6905611.09508  -5380993.71608  22927026.30908  22927028.70208
 93 04 16 15 30 00.0000000  0  7 18 25 15 14 29 22 19
 -16840675.37508 -13122605.01608  21831546.93408  21831547.93908
   8584909.14008   6689529.67808  22816825.50308  22816827.37508
   7403036.71407   5768590.71608  23575830.20707  23575833.75108
 -10844383.08109  -8450170.42408  19097958.73909  19097959.40708
 -11951474.38708  -9312838.67508  19983561.87208  19983561.70308
 -11819614.25408  -9210088.57408  20273998.46208  20273999.17608
  -7324299.10608  -5707243.95208  22847352.52408  22847354.93408
 93 04 16 15 32 00.0000000  0  7 18 25 15 19 29 14 22
 -17203526.31208 -13405345.97308  21762498.58308  21762499.54608
   8877024.29508   6917151.45708  22872413.77308  22872415.44108
   7708695.92407   6006766.14408  23633995.73507  23633999.35908
  -7737516.05408  -6029231.03808  22768719.90008  22768722.26808
 -12145284.04708  -9463859.21108  19946681.16908  19946680.95208
 -10875418.71409  -8474354.10708  19092052.93509  19092053.63008
 -11862986.14308  -9243884.90708  20265745.15508  20265745.86508
 93 04 16 15 34 00.0000000  0  7 18 25 15 14 29 22 19
 -17563930.79708 -13686180.58908  21693915.82008  21693916.84308
   9171341.07808   7146488.76208  22928420.60608  22928422.66508
   8014454.65707   6245019.15408  23692180.27107  23692183.87908
 -10895273.13409  -8489825.15208  19088274.79309  19088275.51908
 -12334744.96608  -9611491.11708  19910627.91508  19910627.75808
 -11894810.13408  -9268682.88008  20259689.32608  20259689.96508
  -8145434.43308  -6347089.40208  22691095.43608  22691097.87408
 93 04 16 15 36 00.0000000  0  7 18 25 15 19 29 14 22
 -17921530.85308 -13964829.91708  21625866.78108  21625867.73608
   9467506.80008   7377266.76008  22984779.39208  22984781.36108
   8319970.16008   6483082.58408  23750318.45308  23750322.16808
  -8548329.77408  -6661033.70108  22614426.95908  22614429.27308
 -12519956.67908  -9755811.95308  19875383.35308  19875383.17908
 -10904140.47709  -8496734.84508  19086587.47009  19086588.22008
 -11915274.54008  -9284629.21908  20255795.02908  20255795.69308
 93 04 16 15 38 00.0000000  0  7 18 25 15 19 29 14 22
 -18275843.76308 -14240917.85508  21558443.22708  21558444.24008
   9766108.87908   7609943.27107  23041601.85308  23041603.74007
   8625672.28307   6721291.38107  23808491.99407  23808495.94407
  -8945589.33708  -6970586.46908  22538830.81908  22538833.06308
 -12700100.43108  -9896183.73208  19841103.15908  19841103.03808
 -10901160.86909  -8494413.15708  19087154.54409  19087155.27708
 -11923807.32208  -9291278.17708  20254171.39808  20254172.04408
 93 04 16 15 40 00.0000000  0  7 18 25 15 19 14 29 22
 -18627259.82008 -14514748.51408  21491570.90208  21491572.05708
  10066882.34908   7844311.70608  23098837.26408  23098839.61608
   8931282.98307   6959428.97807  23866648.35207  23866652.11307
  -9336890.70408  -7275496.47308  22464368.44408  22464370.82908
 -10886800.20209  -8483223.11608  19089887.31809  19089888.11008
 -12875399.88708 -10032780.73508  19807744.80308  19807744.71608
 -11920550.75908  -9288740.62608  20254791.20508  20254791.81008
 93 04 16 15 42 00.0000000  0  7 18 19 25 15 14 29 22
 -18975683.24908 -14786247.23108  21425268.00908  21425269.15108
  -9723437.90208  -7576701.94108  22390810.83108  22390813.18708
  10368924.91208   8079669.05507  23156314.43308  23156316.81907
   9236023.10207   7196888.13407  23924638.95007  23924643.04207
 -10861514.04609  -8463519.70808  19094699.19709  19094699.97108
 -13046550.43408 -10166144.82908  19775176.02408  19775175.80808
 -11906158.78108  -9277526.14208  20257529.87708  20257530.53908
 93 04 16 15 44 00.0000000  0  7 18 19 25 15 29 14 22
 -19322051.13508 -15056144.22108  21359356.37108  21359357.50708
 -10105293.43208  -7874251.55608  22318146.10208  22318148.46608
  10671767.08607   8315649.44107  23213943.60007  23213946.37607
   9539294.25307   7433202.63107  23982349.94307  23982354.46507
 -13213711.46208 -10296400.21208  19743366.31508  19743366.18108
 -10825844.53809  -8435725.37408  19101487.00109  19101487.76508
 -11881111.62708  -9258008.94608  20262296.21708  20262296.86308
 93 04 16 15 46 00.0000000  0  7 18 19 25 15 29 14 22
 -19667265.20408 -15325142.14908  21293664.34508  21293665.44308
 -10483360.81508  -8168849.40208  22246202.30208  22246204.30408
  10974334.56907   8551415.77507  23271520.75507  23271523.58707
   9839902.11707   7667441.80107  24039554.28607  24039558.88607
 -13377821.93608 -10424278.53308  19712137.16808  19712137.06808
 -10780995.04309  -8400777.80208  19110021.60809  19110022.46808
 -11846499.54608  -9231038.58008  20268882.71008  20268883.51008
 93 04 16 15 48 00.0000000  0  6 18 19 25 29 14 22
 -20010492.54708 -15592591.98608  21228350.25808  21228351.29808
 -10857047.70608  -8460033.89008  22175091.88208  22175093.91008
  11277585.93307   8787714.98607  23329227.91407  23329230.72407
 -13537941.55708 -10549047.09708  19681667.46108  19681667.36408
 -10725925.05609  -8357866.19608  19120501.18409  19120502.02108
 -11801518.47408  -9195988.49308  20277442.43908  20277443.27608
 93 04 16 15 50 00.0000000  0  7 18 19 25 15 29 14 22
 -20351108.60808 -15858007.05108  21163533.19808  21163534.28708
 -11225698.64108  -8747294.22008  22104939.80808  22104942.11708
  11581691.98907   9024680.24407  23387097.86807  23387100.87207
         0.00217        -0.13117  24152865.15417  24152870.24417
 -13693857.47708 -10670540.03308  19651997.70108  19651997.63108
 -10660026.07609  -8306516.42308  19133041.36609  19133042.24908
 -11745969.97608  -9152704.02108  20288013.11308  20288013.80608
 93 04 16 15 52 00.0000000  0  7 18 19 25 15 29 14 22
 -20689424.22708 -16121629.57008  21099153.92508  21099154.92408
 -11590012.85608  -9031175.30008  22035613.04708  22035615.35308
  11885713.44507   9261579.57407  23444951.57507  23444954.57907
    294345.41707    229359.15107  24208877.81707  24208883.03507
 -13845984.35908 -10789080.47608  19623048.87808  19623048.79408
 -10584161.27809  -8247401.08108  19147478.01109  19147478.87608
 -11680379.03608  -9101594.25208  20300494.68208  20300495.42208
 93 04 16 15 54 00.0000000  0  7 18 19 25 15 29 14 22
 -21026097.28808 -16383972.15708  21035087.10108  21035088.12808
 -11950191.64908  -9311833.98208  21967073.18408  21967075.21508
  12190191.22207   9498834.53507  23502892.38507  23502895.40207
    585979.64607    456605.81307  24264374.70207  24264379.95007
 -13994454.54708 -10904771.54408  19594795.89808  19594795.86608
 -10498782.82909  -8180872.50408  19163725.06109  19163725.98608
 -11604932.64608  -9042804.90508  20314851.64008  20314852.41708
 93 04 16 15 56 00.0000000  0  7 19 25 15 29 14 22 18
 -12304546.84008  -9587954.80508  21899641.47708  21899643.44908
  12495560.17607   9736783.82707  23561002.38007  23561005.91107
    875780.98407    682424.36107  24319522.51207  24319528.00307
 -14138148.26408 -11016740.69908  19567451.97008  19567451.89408
 -10402543.70508  -8105881.06708  19182038.73808  19182039.76008
 -11518688.95708  -8975602.07808  20331263.36108  20331264.09608
 -21359620.49908 -16643860.31908  20971619.76508  20971620.65008
 93 04 16 15 58 00.0000000  0  7 19 29 14 22 25 15 18
 -12653595.55008  -9859940.70508  21833219.81708  21833221.81208
 -14276277.93608 -11124374.23708  19541166.81008  19541166.69108
 -10295246.78608  -8022273.16508  19202456.76508  19202457.74408
 -11421418.37508  -8899806.87508  20349773.37508  20349774.18008
  12801987.91407   9975558.14907  23619313.72807  23619317.38207
   1163927.03007    906953.14506  24374355.37207  24374361.01106
 -21689750.71008 -16901104.59508  20908798.04308  20908798.88908
 93 04 16 16 00 00.0000000  0  7 19 25 29 14 22 28 18
 -12998454.66908 -10128661.97208  21767595.06008  21767597.20808
  13108357.48507  10214287.15407  23677614.67107  23677618.59107
 -14410255.58908 -11228772.42408  19515671.68708  19515671.62208
 -10178251.11208  -7931107.79208  19224720.36508  19224721.37708
 -11314530.00708  -8816517.31408  20370113.60508  20370114.45008
        -0.15617        -0.95017  24162642.81317  24162647.07217
 -22017524.50508 -17156512.71008  20846424.61208  20846425.62308
 93 04 16 16 02 00.0000000  0  7 19 25 29 14 22 28 18
 -13338965.54908 -10393995.04508  21702798.13908  21702799.79908
  13414342.95007  10452716.83507  23735842.09007  23735845.88007
 -14540535.53108 -11330289.27608  19490880.27208  19490880.20108
 -10052087.03308  -7832798.21508  19248728.59208  19248729.69708
 -11198400.93808  -8726027.21008  20392212.26408  20392213.10908
   -328810.94507   -256216.94207  24100071.71107  24100076.17307
 -22343160.20008 -17410254.74508  20784458.21108  20784459.27708
 93 04 16 16 04 00.0000000  0  7 19 25 28 29 14 22 18
 -13674548.16408 -10655487.91108  21638938.77208  21638940.64708
  13720435.79007  10691230.22107  23794089.90707  23794094.21207
   -657554.88707   -512380.85407  24037513.72207  24037518.09407
 -14666621.14508 -11428537.82108  19466886.97508  19466886.93708
  -9916110.62808  -7726842.67408  19274604.23008  19274605.30308
 -11072683.92708  -8628065.99408  20416135.56608  20416136.37508
 -22666598.28308 -17662284.36408  20722909.95308  20722910.96908
 93 04 16 16 06 00.0000000  0  7 19 25 28 29 14 22 18
 -14006011.06008 -10913770.58708  21575863.32608  21575865.44408
  14026142.61107  10929442.85507  23852264.64407  23852268.87307
   -985881.55407   -768219.61407  23975035.24107  23975039.63407
 -14788296.70608 -11523349.96208  19443732.91308  19443732.87908
  -9770768.70708  -7613589.33208  19302261.95408  19302263.03308
 -10937617.38908  -8522819.44408  20441837.94808  20441838.81108
 -22987419.81208 -17912275.10708  20661859.56308  20661860.55408
 93 04 16 16 08 00.0000000  0  7 19 25 28 29 14 22 18
 -14333024.87008 -11168586.42108  21513634.62208  21513636.59808
  14331464.12407  11167355.32707  23910365.23607  23910370.06207
  -1313597.01207  -1023582.05007  23912672.69107  23912677.03407
 -14905604.28308 -11614758.48108  19421410.06508  19421409.97708
  -9616272.58908  -7493202.85808  19331661.61208  19331662.67408
 -10793426.86108  -8410463.28908  20469276.50808  20469277.45108
 -23305915.84308 -18160453.78608  20601251.87608  20601252.79708
 93 04 16 16 10 00.0000000  0  7 19 25 28 29 14 22 18
 -14656186.32908 -11420400.45908  21452138.99508  21452140.75808
  14635530.53807  11404289.88807  23968227.76007  23968231.91607
  -1641411.29507  -1279021.46807  23850291.38307  23850295.49407
 -15019761.60608 -11703712.25308  19399686.64608  19399686.55708
  -9453281.18408  -7366196.68108  19362677.94608  19362679.03808
 -10641070.56908  -8291744.19808  20498268.86308  20498270.03908
 -23622502.42108 -18407144.58508  20541007.35208  20541008.35408
 93 04 16 16 12 00.0000000  0  7 19 25 28 29 14 22 18
 -14976460.09808 -11669964.34408  21391192.81608  21391194.67408
  14937915.82807  11639914.53007  24025770.29707  24025774.32407
  -1969871.47807  -1534964.16607  23787787.50907  23787791.41907
 -15130474.05808 -11789981.70808  19378618.78308  19378618.76508
  -9282713.54108  -7233286.94308  19395136.02008  19395137.22508
 -10481175.80908  -8167150.97908  20528695.94608  20528697.14608
 -23938046.29608 -18653022.88108  20480961.42808  20480962.30508
 93 04 16 16 14 00.0000000  0  7 19 25 29 14 22 28 18
 -15292417.82308 -11916165.07108  21331067.99508  21331069.81008
  15239616.67907  11875005.92107  24083182.06507  24083186.49607
 -15236721.55208 -11872771.98908  19358400.59308  19358400.53808
  -9103294.30008  -7093479.85008  19429278.48008  19429279.57608
 -10312632.48508  -8035818.62108  20560768.84808  20560769.94408
  -2297402.96207  -1790183.19307  23725460.03107  23725463.82907
 -24251416.61608 -18897207.49908  20421328.96608  20421329.81108
 93 04 16 16 16 00.0000000  0  7 19 25 28 29 14 22 18
 -15602909.04008 -12158106.18808  21271983.43508  21271985.17608
  15541428.18407  12110183.45307  24140615.02307  24140619.54007
  -2622861.39707  -2043786.90407  23663527.28507  23663531.38807
 -15338053.23708 -11951731.75808  19339117.76708  19339117.76508
  -8914102.51208  -6946057.79108  19465280.60608  19465281.79108
 -10134581.99508  -7897078.11208  20594650.82108  20594651.90508
 -24560816.92708 -19138298.61008  20362451.96008  20362452.87508
 93 04 16 16 18 00.0000000  0  6 19 28 29 14 22 18
 -15908490.21308 -12396221.30808  21213833.29908  21213834.82608
  -2946493.24508  -2295967.31907  23601942.04608  23601946.03307
 -15433637.74108 -12026213.22508  19320928.72108  19320928.72808
  -8715498.61808  -6791301.62908  19503073.72508  19503074.93408
  -9947218.15508  -7751080.44408  20630305.05808  20630306.14308
 -24866471.90908 -19376471.29808  20304287.84108  20304288.54408
 93 04 16 16 20 00.0000000  0  6 19 28 29 14 22 18
 -16209170.63208 -12630517.65908  21156615.48408  21156617.13808
  -3268097.00108  -2546567.33307  23540742.68908  23540746.41007
 -15524010.36208 -12096633.48708  19303731.41908  19303731.42908
  -8507947.33408  -6629573.48408  19542569.50008  19542570.75608
  -9751060.34908  -7598230.32708  20667632.76408  20667633.86808
 -25169104.44208 -19612288.83508  20246698.69508  20246699.52708
 93 04 16 16 22 00.0000000  0  6 19 28 29 14 22 18
 -16504610.31408 -12860730.31008  21100395.15808  21100396.93208
  -3587001.50308  -2795064.03707  23480056.80008  23480060.47207
 -15608702.06408 -12162627.05908  19287615.16408  19287615.15008
  -8290912.06808  -6460455.23708  19583870.01008  19583871.36008
  -9545898.42708  -7438364.02108  20706673.99108  20706674.98108
 -25467954.72208 -19845159.15508  20189829.36608  20189830.19008
 93 04 16 16 24 00.0000000  0  6 19 28 29 14 22 18
 -16795881.70008 -13087694.91808  21044968.02508  21044969.65608
  -3904615.95608  -3042555.50007  23419616.53608  23419620.19407
 -15688784.38408 -12225028.90308  19272375.99308  19272376.00208
  -8065948.65608  -6285159.22008  19626679.25008  19626680.56508
  -9333124.75408  -7272566.47408  20747163.53408  20747164.62308
 -25764163.74808 -20075971.35608  20133462.60708  20133463.45308
 93 04 16 16 26 00.0000000  0  7 31 28 29 14 22 18 19
        -0.67217        -0.71017  23883370.54017  23883376.14217
  -4220238.62108  -3288494.97607  23359555.07708  23359558.64607
 -15764273.29808 -12283851.46708  19258010.99208  19258010.97608
  -7832755.93208  -6103450.75908  19671054.46608  19671055.80208
  -9112498.21608  -7100649.81908  20789147.49208  20789148.61508
 -26057051.06508 -20304195.23008  20077728.03608  20077728.89208
 -17083012.35908 -13311433.03708  20990328.92208  20990330.55608
 93 04 16 16 28 00.0000000  0  7 31 28 29 14 22 18 19
   -357719.65507   -278742.29607  23815298.42507  23815303.73407
  -4533321.63808  -3532455.56007  23299977.25108  23299980.67807
 -15834561.92208 -12338621.87208  19244635.54308  19244635.60108
  -7591587.16308  -5915527.21108  19716947.49208  19716948.91808
  -8883959.05708  -6922567.50808  20832637.00108  20832638.35408
 -26346286.26908 -20529573.28208  20022688.38908  20022689.27808
 -17365523.71008 -13531571.66108  20936568.66408  20936570.26308
 93 04 16 16 30 00.0000000  0  7 31 28 29 14 22 18 19
   -717719.76107   -559261.55207  23746792.64607  23746797.60407
  -4844473.96608  -3774911.68807  23240767.01408  23240770.28507
 -15900012.91808 -12389622.69008  19232180.69808  19232180.74008
  -7342883.44408  -5721732.27408  19764274.50008  19764275.88508
  -8648283.58108  -6738924.44408  20877484.72908  20877486.02008
 -26633055.78008 -20753030.00508  19968117.92808  19968118.75508
 -17643991.43208 -13748559.45808  20883578.01308  20883579.53408
 93 04 16 16 32 00.0000000  0  7 31 29 14 22 28 18 19
  -1080579.52007   -842009.18307  23677742.35107  23677747.54107
 -15960886.61608 -12437056.78408  19220596.83508  19220596.90608
  -7087095.73008  -5522417.34908  19812949.27708  19812950.71108
  -8405965.13308  -6550105.04508  20923596.62508  20923597.93508
  -5153678.37408  -4015849.96808  23181927.26108  23181930.59408
 -26917228.08408 -20974462.94808  19914041.70608  19914042.63908
 -17918873.72408 -13962753.38408  20831269.61308  20831271.20108
 93 04 16 16 34 00.0000000  0  8 22 29 14 31 27 28 18 19
  -8156838.21508  -6355980.36008  20971003.99708  20971005.38308
 -16017415.34208 -12481105.19508  19209839.77908  19209839.87508
  -6824090.13008  -5317478.09708  19862997.76508  19862999.17208
  -1445547.23307  -1126399.31707  23608291.26507  23608296.33007
        -0.30017        -0.36516  23932049.31517  23932052.54816
  -5460456.62608  -4254897.66808  23123548.89508  23123552.62208
 -27198268.63708 -21193455.57008  19860561.44708  19860562.28208
 -18189945.23308 -14173977.88008  20779686.32408  20779687.84808
 93 04 16 16 36 00.0000000  0  8 22 31 29 14 27 28 18 19
  -7901378.32408  -6156920.91208  21019616.59208  21019617.94308
  -1812551.90607  -1412376.57107  23538452.12007  23538457.27307
 -16069177.17508 -12521439.14308  19199989.89608  19199990.01208
  -6554380.13708  -5107314.63208  19914322.00108  19914323.51508
   -375348.03807   -292478.95007  23860622.71507  23860626.34807
  -5765070.44108  -4492258.80708  23065582.58908  23065586.03308
 -27476594.15408 -21410332.56208  19807597.83608  19807598.64808
 -18457601.62108 -14382541.22608  20728753.03208  20728754.56908
 93 04 16 16 38 00.0000000  0  8 22 31 27 29 14 28 18 19
  -7640966.25208  -5954002.60808  21069171.48408  21069172.90608
  -2182892.42807  -1700953.15707  23467978.32907  23467983.44807
   -750654.58007   -584925.32207  23789204.03307  23789207.69007
 -16117572.17608 -12559149.56608  19190780.65208  19190780.77308
  -6279581.70408  -4893186.14408  19966614.54808  19966616.04008
  -6068762.31608  -4728901.63108  23007791.74508  23007795.21208
 -27752858.34208 -21625603.32508  19755026.50508  19755027.36408
 -18722695.48408 -14589107.81608  20678307.21408  20678308.69208
 93 04 16 16 40 00.0000000  0  8 22 31 27 29 14 28 18 19
  -7374438.98508  -5746319.22008  21119890.14908  21119891.55408
  -2555322.71007  -1991158.12107  23397106.96807  23397111.84507
  -1124534.02307   -876259.65407  23718056.93007  23718060.47707
 -16161161.13808 -12593115.01508  19182485.97808  19182486.08808
  -5998317.31608  -4674019.25208  20020137.45708  20020139.02708
  -6369688.16708  -4963389.10308  22950527.36208  22950530.83308
 -28025947.68908 -21838400.19108  19703059.26608  19703060.13008
 -18984114.21808 -14792810.67808  20628560.84208  20628562.53908
 93 04 16 16 42 00.0000000  0  8 22 31 27 29 14 28 18 19
  -7101801.33908  -5533874.50008  21171771.48708  21171772.96108
  -2929077.29008  -2282395.09907  23325983.61908  23325988.08707
  -1496847.72707  -1166373.86308  23647207.72207  23647211.23708
 -16199470.62108 -12622966.58608  19175195.93908  19175196.03608
  -5710291.12408  -4449583.42108  20074947.23308  20074948.76508
  -6667265.40008  -5195267.20808  22893900.22008  22893903.43808
 -28295794.60208 -22048670.48908  19651709.09808  19651709.93308
 -19241756.92108 -14993571.16508  20579533.07608  20579534.68708
 93 04 16 16 44 00.0000000  0  8 22 31 27 29 14 28 18 19
  -6822766.86208  -5316445.24608  21224870.09708  21224871.69308
  -3303467.39307  -2574127.33107  23254739.12807  23254743.81107
  -1867081.40107  -1454867.25508  23576754.42407  23576757.76908
 -16232258.71608 -12648515.79508  19168956.63208  19168956.74608
  -5415725.62508  -4220052.04408  20131001.26908  20131002.85708
  -6961130.52508  -5424252.73108  22837979.44408  22837982.71808
 -28561831.86708 -22255972.23608  19601083.96008  19601084.75508
 -19495199.23608 -15191058.61608  20531304.57108  20531306.12808
 93 04 16 16 46 00.0000000  0  8 22 29 14 31 27 28 18 19
  -6537634.90208  -5094264.70308  21279129.06008  21279130.75108
 -16259439.39208 -12669695.60608  19163784.36708  19163784.48108
  -5114666.26208  -3985460.51708  20188291.09408  20188292.75508
  -3678750.10708  -2866555.13007  23183324.87008  23183329.47507
  -2235138.46307  -1741664.70107  23506715.18807  23506718.46207
  -7251371.16608  -5650413.96408  22782748.25108  22782751.10508
 -28823874.91908 -22460161.59508  19551218.72808  19551219.61308
 -19744548.93508 -15385357.00308  20483854.77708  20483856.17808
 93 04 16 16 48 00.0000000  0  8 22 31 27 29 14 28 18 19
  -6247335.16708  -4868057.34008  21334371.38208  21334373.06008
  -4055450.67808  -3160087.66507  23111641.03208  23111645.25707
  -2602201.83207  -2027687.91607  23436865.20107  23436868.53707
 -16281819.62808 -12687134.80408  19159525.62808  19159525.74608
  -4807984.53008  -3746487.94008  20246650.85008  20246652.52008
  -7538415.84108  -5874084.82608  22728125.19608  22728128.16208
 -29082394.33508 -22661605.27608  19502024.16508  19502024.88508
 -19990424.71508 -15576948.44808  20437066.14808  20437067.68608
 93 04 16 16 50 00.0000000  0  8 22 31 27 28 29 14 18 19
  -5952490.15008  -4638308.23008  21390478.69908  21390480.55308
  -4433868.91408  -3454958.60607  23039630.05708  23039634.20107
  -2968650.87807  -2313232.36008  23367132.02707  23367135.39408
  -7822427.80308  -6095392.52608  22674079.07908  22674082.14108
 -16299740.64908 -12701099.28608  19156115.36708  19156115.62808
  -4496568.11708  -3503826.01408  20305911.48508  20305913.40508
 -29337826.80308 -22860643.55108  19453416.92408  19453417.75108
 -20233477.30408 -15766340.02508  20390814.82708  20390816.33808
 93 04 16 16 52 00.0000000  0  8 22 31 27 28 29 14 18 19
  -5653230.85008  -4405119.42008  21447426.10008  21447427.83308
  -4813630.38108  -3750876.19307  22967363.47108  22967367.72907
  -3334279.79207  -2598137.67807  23297555.08907  23297558.13407
  -8103277.91208  -6314236.41208  22620634.92008  22620637.72908
 -16312933.88508 -12711379.78908  19153604.80308  19153605.03308
  -4180195.33408  -3257301.96508  20366115.40208  20366117.24808
 -29590155.24108 -23057263.08808  19405400.41308  19405401.19008
 -20473826.06008 -15953624.70208  20345077.84808  20345079.36708
 93 04 16 16 54 00.0000000  0  8 22 31 27 28 29 14 18 19
  -5349849.44308  -4168718.57908  21505157.76408  21505159.69008
  -5194814.67007  -4047902.56108  22894826.23407  22894830.88708
  -3698878.03608  -2882239.91407  23228174.14808  23228177.09307
  -8380822.82408  -6530504.86808  22567819.61108  22567822.24408
 -16321630.17208 -12718156.16508  19151949.94308  19151950.14708
  -3859316.10108  -3007266.40108  20427176.95808  20427178.81708
 -29839828.81008 -23251813.89708  19357889.09108  19357889.87708
 -20711401.70508 -16138748.51008  20299868.64708  20299870.05408
 93 04 16 16 56 00.0000000  0  8 22 31 27 28 29 14 18 19
  -5040626.06408  -3927765.56908  21564001.23908  21564003.34308
  -5575225.47908  -4344326.19208  22822436.22008  22822440.62608
  -4061057.06108  -3164457.17307  23159253.56108  23159256.49907
  -8653122.32408  -6742686.09408  22516002.75508  22516005.07108
 -16323900.80508 -12719925.54208  19151517.94408  19151518.17808
  -3532530.10108  -2752628.17808  20489362.32308  20489364.27908
 -30084205.43408 -23442237.21508  19311385.75708  19311386.55808
 -20944186.25108 -16320139.00208  20255571.13708  20255572.56508
 93 04 16 16 58 00.0000000  0  8 22 31 27 28 29 14 18 19
  -4725237.58208  -3682008.60108  21624017.85808  21624019.91108
  -5954247.76508  -4639667.79708  22750310.54108  22750314.55708
  -4420060.00008  -3444199.60907  23090937.57808  23090940.41207
  -8919723.10508  -6950426.81808  22465270.06408  22465272.60708
 -16319123.11008 -12716202.70608  19152427.17408  19152427.39508
  -3199273.31108  -2492947.78908  20552779.22108  20552781.16708
 -30322661.53008 -23628047.14308  19266009.04708  19266009.80008
 -21171974.92408 -16497636.61408  20212224.37808  20212225.88208
 93 04 16 17 00 00.0000000  0  8 22 31 27 28 29 14 18 19
  -4404217.48108  -3431863.35508  21685106.09608  21685108.42708
  -6331984.30808  -4934007.55608  22678429.39908  22678433.21008
  -4776340.59308  -3721820.73408  23023139.53408  23023142.32208
  -9180417.00208  -7153564.82808  22415661.57708  22415664.25908
 -16307733.90208 -12707328.05008  19154594.50608  19154594.73408
  -2859792.97908  -2228417.89308  20617380.27008  20617382.37808
 -30555807.70009 -23809719.46908  19221642.77009  19221643.50208
 -21395316.35508 -16671668.87108  20169723.85708  20169725.31908
 93 04 16 17 02 00.0000000  0  8 22 31 27 28 29 14 18 19
  -4079320.19208  -3178696.93008  21746932.30208  21746934.52608
  -6709860.65508  -5228456.31108  22606521.48608  22606525.43208
  -5131326.87508  -3998433.20408  22955587.58108  22955590.34608
  -9436535.72408  -7353137.79608  22366923.82708  22366926.62708
 -16290908.50008 -12694217.40908  19157796.28808  19157796.53608
  -2515832.52208  -1960397.01408  20682834.09208  20682836.13808
 -30784818.72309 -23988169.59408  19178063.43909  19178064.17708
 -21615380.76808 -16843147.58808  20127847.00008  20127848.37808
 93 04 16 17 04 00.0000000  0  8 22 31 27 28 29 14 18 19
  -3751560.24208  -2923299.84008  21809303.02308  21809305.32708
  -7088696.69708  -5523652.76607  22534431.31608  22534435.02707
  -5486246.42108  -4274993.62008  22888048.53608  22888051.22008
  -9688993.46208  -7549858.02108  22318882.32508  22318885.04208
 -16269618.72908 -12677628.05308  19161847.60408  19161847.84608
  -2168897.98308  -1690058.67808  20748853.61008  20748855.87808
 -31010486.49809 -24164014.59108  19135120.24109  19135121.01908
 -21833237.74308 -17012906.22808  20086390.16908  20086391.48708
 93 04 16 17 06 00.0000000  0  8 22 31 27 29 14 28 18 19
  -3420495.60608  -2665327.67708  21872302.82708  21872305.15408
  -7467207.88608  -5818596.06707  22462402.62808  22462406.13907
  -5840008.86708  -4550652.45408  22820729.50408  22820732.20008
 -16243308.84008 -12657126.90908  19166854.32308  19166854.60508
  -1818605.76208  -1417103.99408  20815512.10008  20815514.48408
  -9937036.13608  -7743137.90908  22271681.43808  22271684.21308
 -31232121.70809 -24336717.33008  19092944.44609  19092945.23508
 -22048347.67008 -17180524.30808  20045456.07508  20045457.48308
 93 04 16 17 08 00.0000000  0  8 22 31 27 29 14 28 18 19
  -3084764.53408  -2403719.33008  21936190.68208  21936192.98308
  -7844111.14608  -6112286.42107  22390679.95108  22390683.22407
  -6191192.09708  -4824301.54908  22753901.46808  22753904.13608
 -16210336.16208 -12631433.98308  19173128.91908  19173129.14108
  -1463119.43608  -1140101.97108  20883159.10308  20883161.60008
 -10178898.88108  -7931602.27408  22225656.57608  22225659.30608
 -31448271.84909 -24505146.00108  19051812.40409  19051813.13708
 -22259078.47508 -17344730.07608  20005355.31008  20005356.63408
 93 04 16 17 10 00.0000000  0  8 14 22 31 27 29 28 18 19
  -1102949.65208   -859450.52608  20951697.46408  20951700.02608
  -2744589.55908  -2138648.24208  22000924.04108  22000926.50108
  -8219486.75208  -6404786.45407  22319248.04708  22319251.31707
  -6540031.16008  -5096124.02208  22687519.38008  22687522.15608
 -16170587.80808 -12600461.30408  19180692.80008  19180693.12208
 -10414183.05008  -8114940.45108  22180883.22008  22180885.99208
 -31658608.37209 -24669044.57608  19011786.72909  19011787.43508
 -22465522.59508 -17505595.58208  19966070.26808  19966071.51908
 93 04 16 17 12 00.0000000  0  8 14 22 31 29 27 28 18 19
   -738409.80408   -575393.84708  21021067.43708  21021069.97208
  -2399899.12608  -1870058.61308  22066516.71008  22066519.27508
  -8592023.14608  -6695074.18407  22248356.36808  22248359.71907
 -16123874.40708 -12564061.33008  19189582.13208  19189582.44208
  -6886373.25308  -5366000.70508  22621612.50508  22621615.25808
 -10642882.44308  -8293147.64308  22137363.03908  22137365.81508
 -31862923.68409 -24828251.30808  18972906.85709  18972907.55808
 -22667440.55908 -17662934.21508  19927646.46408  19927647.79808
 93 04 16 17 14 00.0000000  0  8 14 22 31 29 27 28 18 19
   -369849.24408   -288204.15008  21091202.43508  21091204.97308
  -2051597.86708  -1598655.37708  22132796.58108  22132799.21708
  -8962840.23408  -6984022.23907  22177791.70508  22177795.24607
 -16070702.66708 -12522628.88908  19199700.35608  19199700.78208
  -7230995.69508  -5634537.40408  22556032.91608  22556035.43808
 -10865645.81108  -8466729.35708  22094972.55408  22094975.06008
 -32061936.37409 -24983326.11208  18935035.99909  18935036.69808
 -22865625.35808 -17817363.89508  19889933.19408  19889934.50408
 93 04 16 17 16 00.0000000  0  8 14 22 29 31 27 28 18 19
      2153.02408      1667.36508  21161992.41008  21161995.09308
  -1700379.48908  -1324979.07308  22199631.55008  22199634.15708
 -16011609.83408 -12476582.61108  19210945.52508  19210945.84508
  -9332384.61108  -7271978.58607  22107469.70608  22107472.84807
  -7573980.85008  -5901798.34308  22490764.76308  22490767.33608
 -11082456.67708  -8635672.79008  22053714.75608  22053717.24108
 -32255605.07609 -25134236.79008  18898182.04009  18898182.79108
 -23060777.56108 -17969430.53508  19852797.00408  19852798.34108
 93 04 16 17 18 00.0000000  0  8 14 22 29 31 27 28 18 19
    377149.29808    293871.87508  21233352.06408  21233354.79608
  -1345951.50408  -1048801.79808  22267077.10108  22267079.95508
 -15946347.00208 -12425728.55408  19223364.70208  19223365.04208
  -9699730.20908  -7558221.64207  22037566.03108  22037568.97507
  -7914919.25208  -6167464.51408  22425886.50808  22425888.83708
 -11292832.77908  -8799602.15208  22013681.57408  22013683.97708
 -32443728.12609 -25280826.18908  18862383.41409  18862384.16908
 -23252484.58108 -18118812.60308  19816316.22208  19816317.59108
 93 04 16 17 20 00.0000000  0  8 14 22 29 31 27 28 18 19
    755300.06108    588534.39008  21305312.09308  21305315.02608
   -988633.23708   -770372.36308  22335072.77908  22335075.81708
 -15874923.75208 -12370074.19408  19236956.22608  19236956.57908
 -10064991.47808  -7842840.53607  21968058.88308  21968061.94507
  -8254194.59008  -6431834.88508  22361324.45208  22361326.81608
 -11496675.69908  -8958440.73508  21974891.31708  21974893.79708
 -32626278.88309 -25423073.54108  18827645.14609  18827645.89708
 -23440868.24408 -18265605.05408  19780468.10008  19780469.35508
 93 04 16 17 22 00.0000000  0  8 14 29 22 31 27 28 18 19
   1137022.79808    885980.27108  21377951.86608  21377954.75008
 -15796300.89808 -12308809.74908  19251917.64308  19251918.06208
   -627916.43308   -489294.71608  22403715.24208  22403718.21208
 -10426989.79808  -8124916.90207  21899172.81108  21899175.72307
  -8591040.87208  -6694312.43608  22297224.59508  22297226.91208
 -11693212.90908  -9111586.56308  21937491.51608  21937494.14708
 -32802528.52209 -25560410.94208  18794105.90509  18794106.63308
 -23625080.60108 -18409147.14608  19745413.60008  19745414.97108
 93 04 16 17 24 00.0000000  0  8 14 29 22 31 27 28 18 19
   1520738.35008   1184978.96808  21450970.81108  21450973.79408
 -15712220.00008 -12243292.28808  19267917.82408  19267918.27108
   -265255.99208   -206702.54408  22472727.46008  22472730.65208
 -10786992.09108  -8405437.99407  21830666.40208  21830669.35707
  -8926902.38408  -6956022.55608  22233312.46308  22233314.54908
 -11883546.49708  -9259898.39208  21901272.08008  21901274.66708
 -32973534.18009 -25693662.12108  18761564.67709  18761565.43308
 -23806487.65708 -18550503.26608  19710892.98408  19710894.39508
 93 04 16 17 26 00.0000000  0  8 14 29 22 31 27 28 18 19
   1905958.77808   1485150.27808  21524276.17608  21524279.34908
 -15622996.20308 -12173767.38008  19284896.57608  19284897.13508
     98715.69208     76911.35208  22541989.30808  22541992.48508
 -11145210.09308  -8684568.69307  21762499.64608  21762502.57607
  -9262202.22508  -7217294.99508  22169506.67008  22169508.96008
 -12068357.73508  -9403907.09708  21866103.74108  21866106.31708
 -33139774.82509 -25823200.30508  18729930.11309  18729930.83808
 -23985850.75808 -18690266.72108  19676761.31008  19676762.73308
 93 04 16 17 28 00.0000000  0  8 29 14 22 31 27 28 18 19
 -15526901.37208 -12098888.41208  19303182.90508  19303183.48508
   2293707.49108   1787291.69308  21598062.71308  21598065.90708
    465287.33008    362551.22508  22611745.82908  22611749.03708
 -11500316.24608  -8961274.59508  21694925.14408  21694927.90708
  -9595407.41008  -7476935.22208  22106099.75708  22106101.91008
 -12246018.19108  -9542343.79808  21832296.21108  21832298.61008
 -33299494.11809 -25947656.90308  18699536.62509  18699537.33908
 -24161370.40209 -18827035.29208  19643361.08509  19643362.33208
 93 04 16 17 30 00.0000000  0  8 29 14 22 31 27 28 18 19
 -15424892.37708 -12019401.01408  19322594.72508  19322595.30908
   2683195.17108   2090788.12208  21672180.02808  21672183.34308
    833629.57008    649570.78908  22681839.12908  22681842.70608
 -11852619.37508  -9235796.30908  21627883.96308  21627886.67408
  -9927174.51408  -7735454.88708  22042966.41508  22042968.64608
 -12416786.93308  -9675410.34908  21799799.92008  21799802.17008
 -33453265.17209 -26067478.51508  18670275.01409  18670275.71608
 -24334017.91209 -18961565.83908  19610507.38909  19610508.59108
 93 04 16 17 32 00.0000000  0  8 14 29 22 31 27 28 18 19
   3075349.99508   2396362.81708  21746804.95208  21746808.40408
 -15315972.92108 -11934528.83808  19343321.52608  19343322.13208
   1204468.46108    938535.70008  22752407.85908  22752411.37408
 -12200764.80508  -9507078.22608  21561633.84308  21561636.51608
 -10256809.23308  -7992313.00108  21980238.71008  21980240.96508
 -12579697.26408  -9802353.44408  21768799.28008  21768801.58008
 -33600477.70509 -26182189.59308  18642261.35909  18642262.13208
 -24502895.67909 -19093158.91108  19578371.01909  19578372.23608
 93 04 16 17 34 00.0000000  0  8 14 29 22 31 27 28 18 19
   3470170.05608   2704014.29008  21821937.00908  21821940.54708
 -15199458.99308 -11843738.90108  19365493.51908  19365494.11308
   1578140.86508   1229708.57508  22823515.78108  22823519.30408
 -12544360.07008  -9774814.57108  21496249.74908  21496252.48708
 -10583731.56208  -8247057.55608  21918027.53908  21918029.72208
 -12733929.92808  -9922534.69308  21739449.62708  21739451.93508
 -33740408.10309 -26291226.29308  18615633.50909  18615634.27108
 -24667239.85209 -19221219.31008  19547097.32109  19547098.61708
 93 04 16 17 36 00.0000000  0  8 14 29 22 31 27 28 18 19
   3867247.67808   3013424.87208  21897498.81008  21897502.63908
 -15075916.10108 -11747471.86108  19389003.04508  19389003.72108
   1954204.26007   1522744.57407  22895078.63107  22895082.33207
 -12883410.34408 -10039009.37108  21431730.34008  21431733.05208
 -10908004.05908  -8499737.27808  21856320.39108  21856322.52108
 -12880118.97708 -10036448.16808  21711630.82608  21711633.03708
 -33872948.77209 -26394504.76608  18590411.86509  18590412.63608
 -24827770.11508 -19346307.81208  19516549.34208  19516550.68308
 93 04 16 17 38 00.0000000  0  8 14 29 22 31 27 28 18 19
   4264501.49208   3322972.71608  21973094.21508  21973098.06708
 -14947120.89908 -11647112.10908  19413512.03208  19413512.77808
   2330385.44908   1815872.35408  22966663.97208  22966667.60608
 -13219634.89608 -10301002.35008  21367748.83108  21367751.43708
 -11231937.23708  -8752152.62008  21794678.03308  21794680.09708
 -13019985.27008 -10145434.80608  21685015.06708  21685017.22608
 -34000217.50909 -26493675.23908  18566193.51409  18566194.22308
 -24986514.51909 -19470004.76608  19486341.28109  19486342.66108
 93 04 16 17 40 00.0000000  0  8 14 29 22 31 27 28 18 19
   4661937.69308   3632662.63808  22048724.28108  22048728.38508
 -14812656.91508 -11542335.12408  19439099.86708  19439100.55508
   2707041.63007   2109370.28008  23038339.25807  23038343.31008
 -13552594.34908 -10560451.10408  21304388.74008  21304391.38508
 -11555277.65408  -9004106.12008  21733148.26608  21733150.44108
 -13152920.73508 -10249020.79308  21659718.16408  21659720.32408
 -34121798.86909 -26588413.99408  18543057.29609  18543058.05908
 -25142881.40309 -19591849.09808  19456585.78209  19456587.06108
 93 04 16 17 42 00.0000000  0  8 14 29 22 31 27 28 18 19
   5058526.31308   3941692.07408  22124193.16008  22124197.39308
 -14673477.70108 -11433883.93908  19465584.86008  19465585.60708
   3083113.65207   2402412.95607  23109903.77107  23109907.60007
 -13882664.05108 -10817648.16908  21241578.40108  21241580.88808
 -11878652.04108  -9256086.07608  21671611.94108  21671614.09708
 -13279738.51008 -10347839.78308  21635585.42408  21635587.73108
 -34238403.17309 -26679274.52608  18520868.34709  18520869.03508
 -25298010.94909 -19712729.27508  19427065.62009  19427066.90708
 93 04 16 17 44 00.0000000  0  8 14 29 22 31 27 28 18 19
   5454694.60808   4250393.96608  22199581.91008  22199586.24408
 -14529437.78608 -11321645.20008  19492994.78908  19492995.62708
   3458962.79107   2695282.13907  23181425.78407  23181429.81207
 -14209534.07608 -11072351.98408  21179377.13408  21179379.46308
 -12201569.54408  -9507710.01908  21610162.73808  21610164.84508
 -13399862.01108 -10441442.49108  21612726.58708  21612728.94108
 -34349304.28009 -26765691.01208  18499764.54609  18499765.33708
 -25451314.32109 -19832186.46308  19397892.98309  19397894.28108
 93 04 16 17 46 00.0000000  0  8 14 22 29 31 27 28 18 19
   5851643.08308   4559703.77608  22275119.17708  22275123.79508
   3835774.96307   2988901.62207  23253130.93107  23253135.37307
 -14378893.91608 -11204338.46308  19521642.51608  19521643.37508
 -14531549.37908 -11323272.87108  21118099.37608  21118101.95608
 -12522599.05608  -9757862.79708  21549072.86408  21549074.92708
 -13511909.37608 -10528752.09908  21591404.59308  21591407.00008
 -34453108.83309 -26846577.71308  18480011.23709  18480011.92508
 -25601501.71209 -19949215.63408  19369313.21509  19369314.55308
 93 04 16 17 48 00.0000000  0  8 14 22 29 31 27 28 18 19
   6249810.59908   4869963.39008  22350888.64508  22350893.41908
   4214190.10807   3283770.19307  23325141.33707  23325145.69507
 -14220928.29208 -11081248.53208  19551702.41008  19551703.34508
 -14847425.70508 -11569410.11808  21057990.14808  21057992.50108
 -12841063.13808 -10006016.54908  21488471.00708  21488472.99008
 -13614959.04408 -10609050.51908  21571794.82408  21571797.20508
 -34549141.77809 -26921408.62008  18461736.79309  18461737.57908
 -25747550.79709 -20063020.14208  19341521.03709  19341522.41308
 93 04 16 17 50 00.0000000  0  8 14 22 27 29 28 31 18 19
   6649315.28608   5181264.97607  22426912.43408  22426916.92407
   4594345.01507   3579994.42907  23397482.77307  23397487.25007
 -13156929.90508 -10252146.43708  21428363.58608  21428365.63808
 -14055413.35008 -10952276.02408  19583199.05508  19583200.02008
 -13708664.27508 -10682067.57908  21553963.47108  21553965.77908
 -15157144.11708 -11810748.98608  20999052.40608  20999054.72808
 -34636917.56109 -26989805.38108  18445033.66909  18445034.44208
 -25889408.75309 -20173558.80708  19314526.29009  19314527.78708
 93 04 16 17 52 00.0000000  0  8 14 22 27 29 28 31 18 19
   7050646.72908   5493990.03007  22503283.67408  22503288.67207
   4976712.02707   3877942.49307  23470244.91507  23470249.52607
 -13469682.88808 -10495849.99408  21368848.65508  21368850.60308
 -13881763.29408 -10816964.47608  19616243.69108  19616244.66808
 -13792472.64708 -10747372.82708  21538015.30108  21538017.66508
 -15459639.45108 -12046459.48808  20941489.45508  20941491.77108
 -34715874.96209 -27051330.68008  18430008.60509  18430009.41008
 -26026733.35609 -20280565.00908  19288394.45309  19288395.89708
 93 04 16 17 54 00.0000000  0  8 27 14 22 29 28 31 18 19
 -13781523.53308 -10738842.64708  21309507.29308  21309509.26908
   7451002.48408   5805954.71508  22579469.61808  22579474.67008
   5358530.29407   4175462.93307  23542902.71807  23542907.15807
 -13702584.59008 -10677344.88808  19650340.39408  19650341.43008
 -13868629.19108 -10806715.61008  21523523.13108  21523525.53608
 -15757332.80008 -12278428.18208  20884840.07808  20884842.42208
 -34788521.01509 -27107938.04208  18416184.57109  18416185.38108
 -26161687.31609 -20385723.98208  19262713.58509  19262714.89408
 93 04 16 17 56 00.0000000  0  8 27 14 22 29 31 28 18 19
 -14092300.76108 -10981006.66008  21250368.32208  21250370.30808
   7850368.69808   6117148.36507  22655467.03908  22655472.46707
   5739790.94807   4472548.98607  23615454.46307  23615458.82807
 -13517684.31308 -10533266.95108  19685525.92708  19685527.07108
 -16050084.82508 -12506546.46308  20829131.02208  20829133.44508
 -13937135.81608 -10860097.40808  21510486.96808  21510489.18008
 -34854429.43709 -27159295.29308  18403642.64509  18403643.48208
 -26294647.57909 -20489329.41208  19237412.10509  19237413.36708
 93 04 16 17 58 00.0000000  0  8 27 14 22 29 31 28 18 19
 -14401090.54508 -11221622.02308  21191607.54308  21191609.44208
   8249594.21008   6428232.36407  22731437.79508  22731443.42407
   6121452.70307   4769947.53107  23688082.45207  23688086.86307
 -13326305.68908 -10384140.94708  19721944.22008  19721945.33008
 -16336540.49108 -12729758.46708  20774620.26708  20774622.55608
 -13996904.49508 -10906670.40408  21499113.26608  21499115.58508
 -34912308.00209 -27204395.50708  18392628.73309  18392629.58208
 -26424362.94809 -20590406.32908  19212728.05309  19212729.43908
 93 04 16 18 00 00.0000000  0  8 27 28 14 29 22 31 18 19
 -14711223.89608 -11463284.34208  21132591.16508  21132593.05908
 -14051108.95408 -10948907.63308  21488798.71608  21488800.87508
   8645270.57508   6736550.76108  22806733.14708  22806739.08608
 -13131771.16908 -10232555.82208  19758963.06808  19758964.19808
   6500108.84907   5065004.10207  23760138.17707  23760143.07307
 -16619782.14808 -12950466.06708  20720721.14208  20720723.37208
 -34965771.24509 -27246055.22308  18382455.05009  18382455.87008
 -26554062.82009 -20691471.17908  19188047.06609  19188048.41108
 93 04 16 18 02 00.0000000  0  8 27 28 14 29 22 31 18 19
 -15021546.23908 -11705093.93008  21073538.58608  21073540.70608
 -14098408.47808 -10985764.42208  21479797.83408  21479799.98908
   9038247.80507   7042765.92407  22881514.83207  22881520.86307
 -12932683.25908 -10077422.59808  19796848.43408  19796849.61608
   6876760.38507   5358498.66107  23831812.62107  23831817.54007
 -16898543.86308 -13167682.83908  20667674.27308  20667676.70308
 -35013795.24009 -27283476.57608  18373316.41009  18373317.29308
 -26682520.98509 -20791568.46308  19163602.25909  19163603.54708
 93 04 16 18 04 00.0000000  0  8 27 28 14 22 29 31 18 19
 -15329035.15408 -11944695.64208  21015025.38208  21015027.43308
 -14135738.56308 -11014852.83608  21472694.22808  21472696.32608
   9431528.03807   7349217.17508  22956354.09007  22956360.79308
   7254406.85907   5652768.51407  23903676.50807  23903681.27707
 -12726023.62808  -9916389.34508  19836174.58308  19836175.89308
 -17169358.49708 -13378707.12208  20616139.98208  20616142.17408
 -35052764.78509 -27313842.51008  18365900.81009  18365901.62508
 -26806812.36709 -20888418.88308  19139950.44409  19139951.81108
 93 04 16 18 06 00.0000000  0  8 28 14 22 29 31 27 18 19
 -14163929.05408 -11036819.49808  21467329.85008  21467332.04508
   9824377.93507   7655332.99207  23031111.94807  23031118.54307
   7632275.41707   5947211.46206  23975582.63807  23975587.20606
 -12512724.59208  -9750182.53208  19876764.28708  19876765.55608
 -17432942.56208 -13584097.22208  20565981.52308  20565983.80208
 -15634303.02008 -12182566.65908  20956934.96208  20956936.79508
 -35083403.86809 -27337717.17808  18360070.45309  18360071.26408
 -26927739.53709 -20982647.86008  19116938.74009  19116940.16808
 93 04 16 18 08 00.0000000  0  7 28 14 18 19 29 31 27
 -14183411.02408 -11052000.27708  21463622.36308  21463624.80908
  10215710.65107   7960266.58407  23105580.69207  23105587.35107
 -35106550.01509 -27355753.19408  18355665.90709  18355666.75908
 -27045908.86209 -21074727.87908  19094451.89309  19094453.22908
 -12293373.34208  -9579259.72808  19918505.64008  19918506.91108
 -17689793.77108 -13784240.93108  20517104.22308  20517106.45608
 -15937847.44208 -12419094.72708  20899172.22608  20899174.29308
 93 04 16 18 10 00.0000000  0  8 28 11 14 18 19 29 31 27
 -14195548.79708 -11061458.34008  21461312.77608  21461314.91708
        -0.95118        -0.30718  22498861.29718  22498866.54118
  10604312.99807   8263072.43207  23179530.23107  23179536.96007
 -35123176.27009 -27368708.77508  18352502.03809  18352502.92208
 -27162157.32409 -21165311.09608  19072330.55209  19072331.96808
 -12069065.45308  -9404474.62708  19961190.16908  19961191.50908
 -17940766.13908 -13979803.72408  20469345.94308  20469348.05008
 -16240937.23508 -12655268.53108  20841496.05708  20841498.10908
 93 04 16 18 12 00.0000000  0  8 28 11 14 18 19 29 31 27
 -14199190.40208 -11064296.00708  21460619.71408  21460622.00608
   -359841.49808   -280395.17008  22430385.67808  22430390.84408
  10990830.53508   8564253.63707  23253083.10308  23253090.15307
 -35131926.71809 -27375527.36608  18350836.90409  18350837.83808
 -27276119.51909 -21254112.82208  19050644.16309  19050645.63208
 -11839059.74108  -9225249.66308  20004958.92708  20004960.49208
 -18184659.29708 -14169850.22908  20422934.26608  20422936.52508
 -16543017.33808 -12890655.55308  20784012.11708  20784014.14308
 93 04 16 18 14 00.0000000  0  8 28 11 14 18 19 29 31 27
 -14193418.20608 -11059798.23808  21461718.21908  21461720.44908
   -715857.14508   -557809.59608  22362637.80908  22362643.06808
  11376315.53007   8864630.19107  23326439.62807  23326447.04707
 -35132285.04909 -27375806.64308  18350768.82509  18350769.74608
 -27386557.91509 -21340168.72808  19029628.48909  19029629.90608
 -11602566.02508  -9040969.11808  20049962.45708  20049964.03108
 -18420734.26908 -14353804.64008  20378010.76508  20378012.97608
 -16843239.72108 -13124595.00308  20726881.74008  20726883.53808
 93 04 16 18 16 00.0000000  0  8 28 11 14 18 19 29 31 27
 -14179198.06008 -11048717.64808  21464424.16408  21464426.50208
  -1068384.86308   -832506.15108  22295553.64908  22295558.75808
  11759690.38407   9163362.33407  23399394.54407  23399402.33707
 -35125006.64309 -27370135.22108  18352153.88709  18352154.85308
 -27494298.03709 -21424122.09908  19009126.32609  19009127.63008
 -11360444.35108  -8852303.15208  20096036.85308  20096038.45708
 -18649426.18008 -14532006.02308  20334491.97608  20334494.06208
 -17141389.42608 -13356919.39408  20670145.67208  20670147.41508
 93 04 16 18 18 00.0000000  0  8 11 28 14 18 19 29 31 27
  -1418258.45808  -1105134.56108  22228974.62108  22228979.90308
 -14157293.34408 -11031649.09408  21468592.55708  21468594.93508
  12139562.57207   9459365.22907  23471682.70007  23471691.07807
 -35111199.27009 -27359376.30208  18354781.38509  18354782.42008
 -27600534.69909 -21506903.92008  18988910.18809  18988911.59208
 -11113490.30908  -8659871.69708  20143030.85008  20143032.55108
 -18871728.25608 -14705228.34708  20292189.26408  20292191.20808
 -17439145.76008 -13588937.24608  20613484.41808  20613486.19008
 93 04 16 18 20 00.0000000  0  8 11 28 14 18 19 29 31 27
  -1764582.74608  -1374997.24108  22163070.96508  22163076.21108
 -14126852.62408 -11007929.08308  21474385.31508  21474387.66908
  12517167.80207   9753601.98907  23543539.34407  23543548.01407
 -35089841.62709 -27342734.06008  18358845.69009  18358846.64308
 -27704407.57109 -21587843.84108  18969143.81709  18969145.19808
 -10861321.81508  -8463377.05308  20191017.17408  20191018.93908
 -19086401.58308 -14872506.18608  20251338.24308  20251340.20708
 -17735990.55008 -13820244.79208  20556996.79808  20556998.61708
 93 04 16 18 22 00.0000000  0  8 11 28 14 18 19 29 31 27
  -2106602.70708  -1641505.90108  22097986.58608  22097991.54608
 -14087591.55708 -10977336.09108  21481856.55608  21481858.86208
  12892143.18907  10045789.68507  23614895.48907  23614904.26207
 -35060375.43509 -27319773.47508  18364452.96309  18364453.93608
 -27805211.43909 -21666392.32208  18949961.45709  18949962.92408
 -10603174.89308  -8262223.88808  20240141.11608  20240142.87208
 -19292964.70508 -15033464.37408  20212030.55308  20212032.50608
 -18030879.80008 -14050028.52908  20500880.96308  20500882.87908
 93 04 16 18 24 00.0000000  0  7 11 28 18 19 29 31 27
  -2444981.12708  -1905177.14608  22033595.04908  22033599.86108
 -14040477.37908 -10940623.79308  21490822.13008  21490824.30808
 -35023465.39509 -27291012.49508  18371476.80509  18371477.79108
 -27904123.93909 -21743467.02208  18931139.06309  18931140.39808
 -10340477.70308  -8057525.07708  20290130.93008  20290132.69608
 -19492308.15008 -15188796.83308  20174096.72008  20174098.58608
 -18324793.81308 -14279052.34408  20444950.99408  20444952.77408
 93 04 16 18 26 00.0000000  0  7 11 28 18 19 29 31 27
  -2779099.75808  -2165529.15008  21970014.23608  21970019.15208
 -13985385.84908 -10897695.39708  21501305.54208  21501307.99008
 -34978965.72009 -27256337.51308  18379944.79209  18379945.81308
 -28000744.25909 -21818755.59908  18912752.79809  18912754.26608
 -10072546.86008  -7848748.09308  20341116.77108  20341118.70708
 -19684171.89108 -15338300.96208  20137586.13008  20137588.08408
 -18617500.26208 -14507135.20508  20389250.81908  20389252.50508
 93 04 16 18 28 00.0000000  0  8 02 11 28 18 19 29 31 27
        -0.24118        -0.34118  21929806.26218  21929809.84318
  -3107470.44008  -2421402.24508  21907527.35308  21907532.27708
 -13920485.42208 -10847123.72908  21513655.73408  21513658.29608
 -34925589.70209 -27214745.90208  18390102.00509  18390103.11208
 -28093380.15909 -21890939.43508  18895124.79209  18895126.32608
  -9798181.77408  -7634957.43908  20393326.90208  20393328.85708
 -19866545.93508 -15480410.53808  20102881.36908  20102883.33308
 -18907724.87008 -14733284.18308  20334022.76308  20334024.56008
 93 04 16 18 30 00.0000000  0  8 02 11 28 18 19 29 31 27
   -392540.67708   -305875.83608  21855108.02908  21855111.71508
  -3430862.31808  -2673395.69508  21845987.66808  21845992.40608
 -13846893.10908 -10789779.16808  21527660.04308  21527662.60408
 -34864402.60109 -27167067.73808  18401745.63709  18401746.73108
 -28183297.72309 -21961005.08908  18878014.07309  18878015.54108
  -9518444.38708  -7416980.59208  20446559.51408  20446561.62108
 -20040324.67208 -15615822.47608  20069812.47408  20069814.34108
 -19196427.73508 -14958247.39108  20279084.40308  20279086.14008
 93 04 16 18 32 00.0000000  0  8 02 11 28 18 19 29 31 27
   -781365.39908   -608855.94708  21781116.98008  21781120.50608
  -3748750.76208  -2921100.69108  21785495.22908  21785499.91808
 -13764664.92608 -10725705.36508  21543307.87508  21543310.21308
 -34794974.50109 -27112968.01608  18414957.51109  18414958.58308
 -28270241.88709 -22028753.79808  18861469.13409  18861470.63008
  -9233357.59708  -7194835.41208  20500809.94408  20500812.11208
 -20205340.59308 -15744406.24908  20038410.85208  20038412.72308
 -19483158.55908 -15181673.92808  20224521.27208  20224522.99008
 93 04 16 18 34 00.0000000  0  8 02 11 28 18 19 29 31 27
  -1167206.01208   -909510.80708  21707693.69908  21707697.29408
  -4061696.16208  -3164953.93308  21725943.58208  21725948.16608
 -13674325.81108 -10655311.35308  21560498.53808  21560501.10308
 -34717979.85409 -27052972.28908  18429609.14009  18429610.24908
 -28354780.10809 -22094627.76308  18845382.08009  18845383.58308
  -8943762.20508  -6969177.03708  20555918.50308  20555920.62608
 -20362213.97208 -15866645.19708  20008558.83008  20008560.79308
 -19768518.95508 -15404032.60208  20170218.88208  20170220.63708
 93 04 16 18 36 00.0000000  0  8 02 11 28 18 29 31 27 19
  -1549127.21008  -1207111.58808  21635016.38008  21635020.12608
  -4368591.21208  -3404092.62508  21667543.17608  21667547.54208
 -13575426.27208 -10578246.86708  21579318.63208  21579321.19508
 -34632286.06809 -26986198.02708  18445916.22309  18445917.38508
  -8648129.90408  -6738814.60708  20612175.65508  20612178.03908
 -20510002.19108 -15981804.78808  19980435.65608  19980437.46408
 -20052355.25308 -15625203.66808  20116206.62608  20116208.32108
 -28436101.13509 -22157994.84308  18829907.30709  18829908.71808
 93 04 16 18 38 00.0000000  0  8 02 11 28 18 29 31 27 19
  -1926600.24308  -1501246.25508  21563185.72608  21563189.25108
  -4668766.43908  -3637995.12908  21610421.39708  21610425.80408
 -13467161.56808 -10493884.82308  21599920.68108  21599923.32608
 -34537772.46609 -26912551.18308  18463901.62909  18463902.79908
  -8346989.56008  -6504160.21608  20669481.06308  20669483.49608
 -20647961.41908 -16089305.42508  19954182.88308  19954184.62808
 -20333298.75608 -15844120.61308  20062744.84908  20062746.50208
 -28514001.84209 -22218696.74108  18815083.30309  18815084.77508
 93 04 16 18 40 00.0000000  0  8 02 11 28 18 29 31 27 19
  -2299646.90508  -1791931.85808  21492197.19208  21492200.71308
  -4962021.18108  -3866505.05008  21554616.63608  21554621.17308
 -13349542.75708 -10402233.82408  21622302.94108  21622305.44508
 -34434668.30408 -26832210.40408  18483521.78808  18483522.94208
  -8040021.50408  -6264964.77408  20727895.44408  20727898.03808
 -20775965.84908 -16189049.08608  19929824.40208  19929826.26408
 -20611630.68908 -16061002.57408  20009780.00508  20009781.62808
 -28588483.79609 -22276734.68108  18800909.89509  18800911.39808
 93 04 16 18 42 00.0000000  0  8 02 11 28 18 29 31 27 19
  -2668458.56908  -2079317.47608  21422014.57608  21422018.04508
  -5248502.93808  -4089737.39108  21500100.80908  21500105.20608
 -13223288.16008 -10303853.64408  21646328.34008  21646331.08308
 -34323098.29508 -26745272.86108  18504752.96708  18504754.21308
  -7727778.76608  -6021659.19208  20787313.70308  20787316.41508
 -20894515.84008 -16281425.64708  19907264.97608  19907266.89808
 -20887773.66408 -16276178.85508  19957231.71408  19957233.35608
 -28659213.16609 -22331848.50508  18787450.57209  18787452.15808
 93 04 16 18 44 00.0000000  0  8 02 11 28 18 29 31 27 19
  -3032961.39708  -2363345.57008  21352651.82008  21352655.30708
  -5527962.68508  -4307498.03308  21446921.43308  21446925.63008
 -13088202.50508 -10198592.17208  21672034.50108  21672036.96808
 -34203059.71408 -26651736.43808  18527595.62608  18527596.90408
  -7410649.55708  -5774545.98608  20847661.70808  20847664.44608
 -21003450.16408 -16366309.49108  19886535.49508  19886537.30408
 -21161543.10908 -16489505.61708  19905135.09508  19905136.66108
 -28726440.10709 -22384233.15708  18774657.69409  18774659.25108
 93 04 16 18 46 00.0000000  0  8 02 11 28 18 29 31 27 19
  -3392707.72508  -2643667.29008  21284194.36108  21284197.86408
  -5799909.83208  -4519404.66108  21395171.44308  21395175.71208
 -12943960.18908 -10086195.67108  21699482.93708  21699485.42708
 -34074192.30208 -26551320.41108  18552118.38708  18552119.75708
  -7087680.86008  -5522882.55708  20909120.93508  20909123.82408
 -21102338.93008 -16443365.64508  19867717.58208  19867719.42708
 -21432956.02008 -16700996.13308  19853486.86608  19853488.45208
 -28790304.17009 -22433997.38708  18762504.79709  18762506.37808
 93 04 16 18 48 00.0000000  0  8 29 02 11 28 18 31 27 19
  -6760007.18208  -5267552.94708  20971475.63608  20971478.59408
  -3748325.24008  -2920771.70008  21216522.50108  21216525.84108
  -6064803.96108  -4725815.38808  21344763.49508  21344767.74608
 -12791242.94508  -9967195.40008  21728544.16208  21728546.82408
 -33937337.93908 -26444680.80108  18578161.01508  18578162.44908
 -21191556.51408 -16512885.82208  19850740.05008  19850741.85308
 -21702127.45208 -16910740.04208  19802265.11008  19802266.72108
 -28851251.21909 -22481488.61908  18750906.98209  18750908.55908
 93 04 16 18 50 00.0000000  0  8 29 02 11 28 31 27 18 19
  -6427085.74308  -5008134.17008  21034828.80208  21034832.02508
  -4099038.83408  -3194054.85708  21149783.71708  21149787.10808
  -6321596.86708  -4925913.45608  21295897.08208  21295901.43108
 -12629791.84808  -9841389.55908  21759267.23308  21759270.10908
 -21270001.25608 -16574011.57308  19835812.53408  19835814.26408
 -21968231.77408 -17118094.00908  19751627.18108  19751628.74408
 -33791643.33608 -26331152.68608  18605885.94908  18605887.34808
 -28907967.71409 -22525683.32608  18740114.16609  18740115.79908
 93 04 16 18 52 00.0000000  0  8 29 02 11 28 31 27 18 19
  -6089354.49008  -4744967.53908  21099097.27608  21099100.68508
  -4445219.77608  -3463806.05308  21083907.46908  21083910.89108
  -6570654.82008  -5119984.33008  21248502.90508  21248506.82408
 -12460277.50108  -9709300.65608  21791525.18408  21791527.88908
 -21338365.50208 -16627282.36208  19822803.15208  19822804.96608
 -22232043.43008 -17323661.50708  19701425.51008  19701427.04308
 -33637585.31708 -26211107.62708  18635202.36908  18635203.77308
 -28961005.82909 -22567011.76308  18730021.44609  18730023.02708
 93 04 16 18 54 00.0000000  0  8 29 02 11 28 31 27 18 19
  -5746605.18608  -4477890.75108  21164320.75808  21164324.27508
  -4786611.83308  -3729825.68608  21018942.91008  21018946.02008
  -6811624.71008  -5307752.77708  21202647.53308  21202651.58708
 -12282061.19308  -9570430.98108  21825438.47608  21825441.38708
 -21396777.44408 -16672798.07808  19811687.70108  19811689.44208
 -22492961.35708 -17526974.14808  19651774.42808  19651775.89008
 -33475026.31908 -26084438.43808  18666136.38208  18666137.87008
 -29010699.23009 -22605733.94608  18720565.17709  18720566.71708
 93 04 16 18 56 00.0000000  0  8 29 11 28 02 31 27 18 19
  -5399322.28508  -4207281.33308  21230406.87208  21230410.69908
  -7044505.66708  -5489218.17008  21158331.57608  21158335.36208
 -12095421.34708  -9424997.51108  21860955.08408  21860958.08908
  -5123430.58508  -3992281.72208  20954848.30408  20954851.37808
 -21445110.27008 -16710459.91608  19802490.15108  19802491.93108
 -22751622.29908 -17728528.08608  19602552.82308  19602554.45908
 -33304337.35708 -25951434.21508  18698617.44408  18698618.99208
 -29056969.80709 -22641788.99008  18711760.20709  18711761.82208
 93 04 16 18 58 00.0000000  0  8 29 11 28 02 31 27 18 19
  -5047598.02708  -3933211.16208  21297338.39508  21297342.31708
  -7269249.15208  -5664342.71708  21115564.06208  21115567.89808
 -11901181.34908  -9273641.82808  21897917.65908  21897920.95408
  -5455692.58608  -4251187.05108  20891620.77108  20891623.88708
 -21483579.26208 -16740435.65208  19795169.76308  19795171.42208
 -23007943.08508 -17928258.50908  19553776.62008  19553778.09608
 -33125577.87308 -25812141.27808  18732634.55108  18732636.08508
 -29099609.42509 -22675014.71108  18703646.12109  18703647.79308
 93 04 16 19 00 00.0000000  0  8 29 11 28 02 31 27 18 19
  -4691857.67308  -3656011.57208  21365034.02508  21365038.05108
  -7485924.38708  -5833180.38108  21074332.02808  21074335.98408
 -11699026.23508  -9116118.52508  21936386.72308  21936389.83808
  -5783542.96108  -4506654.73808  20829232.85608  20829235.93308
 -21512552.76208 -16763012.32008  19789656.15408  19789657.86508
 -23262105.00908 -18126306.72008  19505411.17808  19505412.68208
 -32939012.31408 -25666765.70208  18768136.88308  18768138.45008
 -29139075.00209 -22705767.14508  18696136.13509  18696137.70508
 93 04 16 19 02 00.0000000  0  8 29 11 28 02 31 27 18 19
  -4332730.68308  -3376173.05508  21433374.11908  21433378.30608
  -7694459.95908  -5995675.49408  21034648.86508  21034652.66508
 -11489535.12208  -8952878.84208  21976251.86408  21976254.64008
  -6107244.87108  -4758889.81908  20767634.31608  20767637.23508
 -21531481.48808 -16777761.92808  19786054.11908  19786055.69708
 -23513970.09808 -18322565.19108  19457482.76808  19457484.33708
 -32744837.03708 -25515460.49108  18805087.36908  18805088.96408
 -29175399.63909 -22734072.08708  18689223.87909  18689225.48208
 93 04 16 19 04 00.0000000  0  8 29 28 02 11 31 27 18 19
  -3969347.54408  -3093018.09208  21502524.37508  21502528.52208
 -11272519.39308  -8783775.84708  22017548.69908  22017551.73808
  -6426171.23508  -5007403.66108  20706944.53908  20706947.39008
  -7894386.60408  -6151462.32908  20996603.99108  20996607.83008
 -21540032.35008 -16784424.92108  19784426.95708  19784428.62308
 -23763220.51808 -18516786.25108  19410051.94008  19410053.40208
 -32542795.94008 -25358026.07708  18843534.67108  18843536.31308
 -29208154.62209 -22759595.48108  18682990.85609  18682992.46308
 93 04 16 19 06 00.0000000  0  8 29 28 02 11 31 27 18 19
  -3601692.28108  -2806534.23208  21572487.34308  21572491.91008
 -11047459.84408  -8608404.95908  22060376.52508  22060379.52808
  -6739988.32508  -5251936.25008  20647226.88008  20647229.81108
  -8085113.15008  -6300080.18608  20960309.82308  20960313.50708
 -21538448.82508 -16783191.01908  19784728.34508  19784730.04508
 -24009625.37908 -18708790.00608  19363162.69308  19363164.13708
 -32332593.33408 -25194232.04708  18883535.07308  18883536.74308
 -29237065.52809 -22782123.48308  18677489.25309  18677490.91708
 93 04 16 19 08 00.0000000  0  8 29 28 02 11 31 27 18 19
  -3231259.82308  -2517886.35108  21642979.00008  21642983.52208
 -10815847.42508  -8427927.99108  22104450.84908  22104453.85408
  -7049810.22808  -5493355.72708  20588269.65908  20588272.58708
  -8267922.46508  -6442528.76308  20925522.15608  20925525.83708
 -21527766.95808 -16774867.51008  19786761.10108  19786762.80208
 -24254161.51808 -18899337.61308  19316628.92808  19316630.33108
 -32115901.74608 -25025381.66408  18924770.24308  18924771.94608
 -29263447.11909 -22802680.58208  18672468.98409  18672470.64808
 93 04 16 19 10 00.0000000  0  8 29 28 02 11 31 27 18 19
  -2859286.79208  -2228038.06208  21713763.78008  21713768.43708
 -10579458.01008  -8243728.71808  22149434.50508  22149437.75908
  -7357348.80708  -5732996.04008  20529746.91308  20529749.75808
  -8444048.39708  -6579769.52008  20892006.37308  20892009.98308
 -21509314.99508 -16760489.39608  19790272.33408  19790274.06408
 -24498558.10408 -19089776.49108  19270121.87808  19270123.27708
 -31893860.42208 -24852362.64908  18967023.51008  18967025.29608
 -29288631.55309 -22822304.83208  18667676.59509  18667678.20108
 93 04 16 19 12 00.0000000  0  8 29 28 02 11 31 27 18 19
  -2485107.87008  -1936470.94108  21784968.29308  21784973.22908
 -10337149.69508  -8054917.37507  22195544.38808  22195547.68107
  -7661203.56508  -5969765.85608  20471925.17808  20471928.11008
  -8612068.05108  -6710693.77608  20860033.28308  20860036.74308
 -21482005.46208 -16739209.26608  19795469.15708  19795470.93808
 -24741584.71608 -19279147.83608  19223875.41308  19223876.75908
 -31665199.57408 -24674185.56308  19010536.32008  19010538.20408
 -29311348.71809 -22840006.53008  18663353.62609  18663355.24908
 93 04 16 19 14 00.0000000  0  8 29 28 02 11 31 27 18 19
  -2107527.79408  -1642253.63308  21856819.94608  21856825.20008
 -10087659.91908  -7860510.17407  22243021.14708  22243024.35407
  -7960182.52808  -6202736.37908  20415031.22808  20415034.11308
  -8770623.39808  -6834243.27308  20829861.00708  20829864.58208
 -21444361.98108 -16709876.69008  19802632.41408  19802634.24908
 -24981607.09308 -19466178.22508  19178200.63308  19178202.09808
 -31429078.28008 -24490195.14608  19055468.81708  19055470.78808
 -29330324.81009 -22854793.12208  18659742.65709  18659744.34008
 93 04 16 19 16 00.0000000  0  8 29 28 02 11 31 27 18 19
  -1726683.56208  -1345492.84408  21929292.91808  21929298.41808
  -9831126.83207  -7660614.67607  22291837.80507  22291841.55807
  -8254329.61308  -6431941.81108  20359056.82308  20359059.73908
  -8919827.62908  -6950506.24008  20801468.47408  20801471.77108
 -21396852.96908 -16672856.64808  19811673.13008  19811674.86108
 -25218656.02408 -19650891.62908  19133091.67708  19133093.08108
 -31185837.44908 -24300657.04608  19101756.17608  19101758.23908
 -29345589.02109 -22866687.34508  18656837.96109  18656839.64808
 93 04 16 19 18 00.0000000  0  8 29 28 02 11 31 27 18 19
  -1343927.36608  -1047242.20008  22002129.84508  22002135.40508
  -9569234.14707  -7456542.83107  22341674.44807  22341678.09307
  -8544830.33408  -6658305.92108  20303776.32408  20303779.05908
  -9060789.74808  -7060346.76708  20774644.19508  20774647.52208
 -21340477.98608 -16628928.06008  19822400.90608  19822402.60608
 -25453946.63208 -19834234.91008  19088317.26908  19088318.74008
 -30936342.46108 -24106245.58608  19149233.61708  19149235.70208
 -29358498.21909 -22876746.48908  18654381.43209  18654383.08408
 93 04 16 19 20 00.0000000  0  8 29 28 02 11 31 27 18 19
   -959391.11508   -747604.53008  22075305.31108  22075311.14008
  -9302107.06007  -7248392.16907  22392507.57907  22392511.47207
  -8831556.05208  -6881728.47408  20249214.24708  20249216.98308
  -9193321.37008  -7163618.03208  20749424.07408  20749427.45508
 -21275365.06908 -16578190.71708  19834791.48408  19834793.11308
 -25687666.25508 -20016354.05208  19043841.89008  19043843.28108
 -30681109.28408 -23907362.81208  19197803.05708  19197805.24308
 -29368690.39509 -22884688.48408  18652441.95909  18652443.68208
 93 04 16 19 22 00.0000000  0  8 29 28 02 11 31 27 18 19
   -572379.15508   -446037.80808  22148952.00108  22148958.29508
  -9028612.00407  -7035279.38707  22444552.22107  22444555.79207
  -9113749.59408  -7101619.42608  20195514.44808  20195517.16808
  -9316302.58608  -7259447.39708  20726021.35608  20726024.80708
 -21200655.90208 -16519975.78208  19849008.16408  19849009.73208
 -25918890.01908 -20196528.37408  18999841.45008  18999842.80108
 -30419113.38708 -23703210.39708  19247659.44808  19247661.69008
 -29375368.14909 -22889891.96808  18651171.23609  18651172.93708
 93 04 16 19 24 00.0000000  0  8 29 28 02 11 31 27 18 19
   -183191.37608   -142775.70708  22223012.74708  22223019.31508
  -8749240.82707  -6817587.82508  22497715.16907  22497719.04708
  -9391466.50108  -7318022.09708  20142666.61208  20142669.34708
  -9429923.37908  -7347982.94508  20704399.95308  20704403.35508
 -21116529.31708 -16454422.61508  19865016.92208  19865018.58808
 -26147466.48008 -20374639.85508  18956344.69808  18956346.08208
 -30150458.91108 -23493869.47108  19298782.83608  19298785.01908
 -29378753.53809 -22892529.97208  18650527.02209  18650528.78808
 93 04 16 19 26 00.0000000  0  8 29 28 02 11 31 27 18 19
    207560.70108    161705.30108  22297371.14408  22297378.14408
  -8464716.87108  -6595881.10307  22551858.54708  22551862.06307
  -9665376.46508  -7531458.32208  20090543.12708  20090545.93908
  -9534791.88708  -7429698.56208  20684444.02708  20684447.42608
 -21023888.87008 -16382235.27708  19882645.86208  19882647.59208
 -26374015.57308 -20551171.57108  18913233.85408  18913235.24308
 -29876210.28008 -23280169.47808  19350970.88308  19350973.07708
 -29379582.74809 -22893176.15108  18650369.31709  18650371.01408
 93 04 16 19 28 00.0000000  0  8 29 28 02 11 31 27 18 19
    600888.05808    468193.05707  22372219.60508  22372226.83707
  -8174559.97907  -6369785.01107  22607073.48007  22607077.32107
  -9934374.63508  -7741067.16608  20039354.35408  20039357.06908
  -9629741.67708  -7503685.32808  20666375.67308  20666379.11408
 -20921442.95408 -16302407.33908  19902140.74508  19902142.44708
 -26597392.02108 -20725231.09508  18870726.71808  18870728.10008
 -29595234.23108 -23061227.35908  19404438.94908  19404441.30308
 -29376245.80609 -22890575.97408  18651004.36609  18651006.08408
 93 04 16 19 30 00.0000000  0  8 29 28 02 11 31 27 18 19
    996942.20507    776805.57608  22447586.98807  22447594.68408
  -7878314.31407  -6138944.43007  22663447.09907  22663451.34207
 -10197943.07408  -7946445.03708  19989198.92808  19989201.50008
  -9713995.29608  -7569337.39508  20650342.64208  20650345.89908
 -20808684.53608 -16214543.73908  19923598.04708  19923599.67908
 -26816801.52108 -20896199.49308  18828974.47008  18828975.79608
 -29307301.12808 -22836864.17708  19459231.06608  19459233.40508
 -29368459.12409 -22884508.45708  18652486.15009  18652487.87508
 93 04 16 19 32 00.0000000  0  8 29 28 02 11 31 27 18 19
   1395706.17108   1087529.63007  22523470.26408  22523477.96107
  -7575416.70907  -5902920.57507  22721086.73407  22721090.96907
 -10455978.73008  -8147511.65608  19940096.26608  19940098.88708
  -9787458.98908  -7626581.75108  20636362.89108  20636366.22608
 -20685874.00108 -16118847.32108  19946968.13308  19946969.87008
 -27032181.30508 -21064027.85008  18787989.01908  18787990.39108
 -29012539.81708 -22607180.31608  19515322.48208  19515324.90508
 -29356147.23809 -22874914.80708  18654829.04809  18654830.78108
 93 04 16 19 34 00.0000000  0  8 29 28 02 11 31 27 18 19
   1796767.88707   1400044.15407  22599790.51707  22599798.42707
  -7266631.59607  -5662309.05807  22779846.79707  22779850.82607
 -10708927.01108  -8344614.08308  19891961.76008  19891964.36008
  -9850456.40408  -7675670.60108  20624374.78808  20624378.20908
 -20553165.00608 -16015437.80108  19972221.95508  19972223.64508
 -27244166.31208 -21229210.93608  18747649.57508  18747650.89608
 -28710904.34108 -22372139.97508  19572722.00508  19572724.58308
 -29339577.91309 -22862003.67608  18657982.09709  18657983.81308
 93 04 16 19 36 00.0000000  0  8 29 28 02 11 31 27 18 19
   2199711.98607   1714025.52307  22676469.08007  22676477.49307
  -6952893.83907  -5417838.40107  22839549.61707  22839553.84507
 -10956744.45908  -8537718.48508  19844803.53208  19844806.05008
  -9903432.86508  -7716950.97208  20614293.84708  20614297.12008
 -20411060.36908 -15904706.95408  19999263.49908  19999265.31908
 -27452870.15508 -21391837.28008  18707934.56608  18707935.75008
 -28403177.23308 -22132352.92308  19631280.60908  19631283.33008
 -29319112.40509 -22846056.55808  18661876.52109  18661878.36308
 93 04 16 19 38 00.0000000  0  8 29 28 02 11 31 27 18 19
   2603132.35007   2028377.96907  22753238.43807  22753246.77307
  -6635049.23407  -5170167.56807  22900033.61307  22900037.86007
 -11201152.65308  -8728166.32008  19798294.21808  19798296.63408
  -9947460.32508  -7751258.07208  20605915.67108  20605918.85908
 -20261096.71108 -15787852.18508  20027800.66208  20027802.46008
 -27659327.66608 -21552713.22208  18668646.94408  18668648.23108
 -28090800.60808 -21888942.88508  19690724.23608  19690726.94108
 -29295701.27909 -22827814.17108  18666331.58609  18666333.35308
 93 04 16 19 40 00.0000000  0  8 29 28 02 11 31 27 18 19
   3007035.57207   2343106.68107  22830099.38507  22830108.15807
  -6313200.92307  -4919376.94207  22961279.75107  22961283.55707
 -11441420.21408  -8915387.68608  19752572.73608  19752575.16108
  -9982059.65408  -7778218.53908  20599331.61508  20599334.85808
 -20102793.32008 -15664498.95008  20057924.77508  20057926.66208
 -27863133.94908 -21711523.25108  18629863.82608  18629865.15108
 -27773214.78308 -21641473.73908  19751158.98608  19751161.83308
 -29269144.93109 -22807120.96808  18671385.10009  18671386.89308
 93 04 16 19 42 00.0000000  0  8 29 28 02 11 31 27 18 19
   3412521.52907   2659068.68107  22907261.43807  22907270.49007
  -5986431.12307  -4664751.34307  23023461.98607  23023466.24707
 -11676585.55308  -9098633.29108  19707822.09808  19707824.50008
 -10006169.36308  -7797005.26108  20594743.53608  20594746.90108
 -19935329.69908 -15534007.90808  20089792.14108  20089794.02708
 -28063210.34708 -21867426.88308  18591790.53608  18591791.77308
 -27449638.45408 -21389336.68608  19812733.85708  19812736.76308
 -29238285.81709 -22783074.96008  18677257.46909  18677259.31308
 93 04 16 19 44 00.0000000  0  8 29 28 02 11 31 27 18 19
   3819338.27007   2976067.61207  22984677.06107  22984686.34807
  -5655106.06707  -4406576.19807  23086511.33207  23086515.55607
 -11907188.73108  -9278323.94808  19663939.71108  19663942.09508
 -10020203.35408  -7807940.76808  20592072.98608  20592076.25608
 -19759317.01008 -15396855.27708  20123286.42108  20123288.22508
 -28259707.69008 -22020541.67108  18554398.35208  18554399.57808
 -27120855.91708 -21133142.85108  19875299.38808  19875302.33008
 -29203472.72909 -22755947.93608  18683882.20309  18683884.09408
 93 04 16 19 46 00.0000000  0  8 29 02 11 31 27 28 18 19
   4227035.83807   3293752.91607  23062260.37907  23062269.74307
 -12133229.68508  -9454459.61908  19620925.43908  19620927.78008
 -10024413.81608  -7811221.61508  20591271.80408  20591275.03008
 -19574750.30108 -15253037.19108  20158408.43808  20158410.23808
 -28452851.99908 -22171043.70808  18517644.21408  18517645.45008
  -5319571.24307  -4145120.62707  23150361.39907  23150365.94007
 -26787353.35308 -20873271.08408  19938763.06408  19938766.13508
 -29164758.64809 -22725781.18308  18691249.35009  18691251.15208
 93 04 16 19 48 00.0000000  0  8 29 02 11 31 27 28 18 19
   4633445.39407   3610434.57907  23139598.30507  23139608.19007
 -12356607.89608  -9628520.42708  19578417.87908  19578420.12508
 -10020283.40908  -7808003.11008  20592057.74608  20592060.94208
 -19383281.18008 -15103840.58808  20194843.97008  20194845.72008
 -28644194.02608 -22320141.37408  18481232.97308  18481234.26408
  -4981928.67507  -3882022.62307  23214612.71607  23214617.39407
 -26450453.61608 -20610752.18208  20002873.24608  20002876.34708
 -29124040.32309 -22694052.68308  18698997.76009  18698999.66008
 93 04 16 19 50 00.0000000  0  7 29 02 11 31 27 18 19
   5039352.23907   3926724.42307  23216840.35207  23216850.71407
 -12576690.44208  -9800013.19508  19536537.45308  19536539.72908
 -10007124.90208  -7797749.74408  20594561.64408  20594564.85408
 -19184701.85008 -14949103.56108  20232632.26008  20232634.29808
 -28833110.44708 -22467348.95608  18445283.34808  18445284.63308
 -26109568.50208 -20345127.80408  20067741.75208  20067745.00908
 -29080308.95309 -22659976.36008  18707319.66509  18707321.52408
 93 04 16 19 52 00.0000000  0  7 16 02 11 31 27 18 19
        -0.32918        -0.22218  21748298.81518  21748303.45918
 -12792353.06708  -9968061.87708  19495498.07508  19495500.33208
  -9984431.43608  -7780066.54108  20598880.20208  20598883.45508
 -18978610.87308 -14788513.31508  20271850.26708  20271852.24008
 -29018543.18108 -22611841.98208  18409996.70908  18409997.89208
 -25764264.04308 -20076059.80808  20133451.36208  20133454.73808
 -29033038.97309 -22623142.66908  18716314.89909  18716316.77708
 93 04 16 19 54 00.0000000  0  7 16 02 11 31 27 18 19
     52280.78008     40737.93508  21758247.98908  21758252.53908
 -13004082.00108 -10133045.37208  19455207.34108  19455209.56008
  -9952075.15108  -7754853.87008  20605037.33408  20605040.53308
 -18764606.95508 -14621757.15308  20312573.85408  20312576.01208
 -29200531.42008 -22753650.98408  18375365.45008  18375366.67508
 -25414636.97508 -19803623.56108  20199983.51208  20199986.97708
 -28981927.01509 -22583315.23508  18726041.26109  18726043.16408
 93 04 16 19 56 00.0000000  0  7 16 02 11 31 27 18 19
    112105.50308     87354.27308  21769632.27808  21769637.17908
 -13210968.49608 -10294255.53808  19415838.14708  19415840.31508
  -9909642.73508  -7721789.68408  20613111.95108  20613115.18108
 -18542437.40008 -14448638.15108  20354851.37208  20354853.46608
 -29378751.21608 -22892523.53108  18341451.29408  18341452.52708
 -25060608.42608 -19527757.60608  20267353.32308  20267356.70908
 -28926397.96809 -22540045.91708  18736608.11109  18736609.97508
 93 04 16 19 58 00.0000000  0  7 16 02 11 31 27 18 19
    179473.32408    139848.33308  21782452.25608  21782457.32208
 -13412970.78208 -10451659.81808  19377398.26408  19377400.49808
  -9856744.19108  -7680570.07208  20623178.28508  20623181.47308
 -18312303.00808 -14269312.78808  20398644.68608  20398646.75708
 -29552443.86508 -23027868.44508  18308398.68008  18308399.95708
 -24701915.72608 -19248257.25908  20335610.60608  20335614.21208
 -28865979.11709 -22492966.35708  18748105.46309  18748107.32308
 93 04 16 20 00 00.0000000  0  7 16 02 27 11 31 18 19
    252777.76208    196968.30708  21796401.99108  21796407.01008
 -13611458.42208 -10606325.40408  19339627.30708  19339629.43108
 -29722798.02808 -23160611.93308  18275981.37008  18275982.62108
  -9794715.50208  -7632236.04408  20634982.05008  20634985.20908
 -18075180.97408 -14084542.47608  20443767.48108  20443769.63908
 -24339800.50008 -18966090.01008  20404519.22008  20404522.93808
 -28802390.98909 -22443417.23308  18760205.93209  18760207.91908
 93 04 16 20 02 00.0000000  0  8 16 15 02 27 11 31 18 19
    332166.72808    258829.44808  21811509.52608  21811514.63008
        -0.56217        -0.35117  23111378.53217  23111386.06317
 -13806244.10108 -10758106.36708  19302560.75508  19302562.88908
 -29889790.55208 -23290735.96708  18244203.74708  18244204.96108
  -9723797.26708  -7576975.10708  20648477.44908  20648480.52708
 -17831500.03308 -13894661.36108  20490138.58408  20490140.77608
 -23974651.50408 -18681558.81208  20474005.15208  20474008.77508
 -28735754.70809 -22391492.94508  18772886.50109  18772888.39208
 93 04 16 20 04 00.0000000  0  8 16 15 02 27 11 31 18 19
    417579.04408    325384.11208  21827763.02408  21827768.35708
   -305307.33407   -237901.21007  23053280.19207  23053287.57407
 -13997798.12208 -10907369.18208  19266109.13808  19266111.31508
 -30053655.45808 -23418422.90008  18213021.28308  18213022.50508
  -9644034.57908  -7514822.41308  20663655.66708  20663658.95508
 -17581451.35308 -13699818.40808  20537721.31808  20537723.59408
 -23606752.90508 -18394885.10508  20544014.18508  20544018.12208
 -28665662.30109 -22336875.56608  18786224.73709  18786226.64808
 93 04 16 20 06 00.0000000  0  8 16 15 27 02 19 11 31 18
    509186.71208    396766.27408  21845195.91208  21845201.16708
   -609751.00707   -475129.48207  22995346.16407  22995353.17907
 -30213457.88508 -23542944.28108  18182611.83508  18182613.10508
 -14185475.08808 -11053610.92908  19230395.43108  19230397.56108
 -28591463.26909 -22279058.22208  18800344.36509  18800346.32108
  -9554820.32308  -7445304.88608  20680632.60008  20680635.89408
 -17324745.84608 -13499788.34508  20586570.87408  20586573.24408
 -23235380.73508 -18105504.73608  20614684.29508  20614688.42208
 93 04 16 20 08 00.0000000  0  8 16 15 27 02 19 11 31 18
    607238.44408    473169.76308  21863854.78308  21863860.19408
   -912910.39107   -711357.04007  22937656.12307  22937663.19107
 -30369014.48908 -23664157.22308  18153010.47508  18153011.68008
 -14368706.30408 -11196388.45008  19195527.58908  19195529.74208
 -28512986.30309 -22217907.42908  18815278.08909  18815280.08008
  -9455990.77308  -7368294.93808  20699439.23308  20699442.68608
 -17061017.35208 -13294285.84108  20636756.88908  20636759.31008
 -22860296.76908 -17813232.08708  20686060.95808  20686065.24008
 93 04 16 20 10 00.0000000  0  8 16 15 27 02 19 11 31 18
    711224.18708    554197.14908  21883642.84708  21883648.41308
  -1214981.08707   -946736.22307  22880173.64807  22880180.72907
 -30520625.47308 -23782295.64108  18124159.85308  18124161.10808
 -14547933.61608 -11336046.02108  19161421.67908  19161423.82208
 -28430470.15609 -22153609.20808  18830980.46309  18830982.48708
  -9348005.30708  -7284150.48308  20719988.30708  20719991.71608
 -16790589.64808 -13083563.15608  20688217.74208  20688220.16008
 -22482600.54608 -17518923.93608  20757934.58708  20757939.00108
 93 04 16 20 12 00.0000000  0  8 16 15 27 02 19 11 31 18
    820949.76008    639697.13207  21904523.52008  21904528.80307
  -1515564.32707  -1180956.36107  22822974.46907  22822980.98007
 -30667846.20408 -23897013.07708  18096144.66808  18096145.91808
 -14723513.71108 -11472861.60708  19128009.86108  19128011.94508
 -28343792.85408 -22086068.54108  18847474.61908  18847476.72908
  -9230737.59208  -7192773.08308  20742303.67908  20742306.94408
 -16513906.13008 -12867965.78808  20740869.04908  20740871.49008
 -22101980.70508 -17222337.64108  20830364.58408  20830369.08108
 93 04 16 20 14 00.0000000  0  8 16 15 27 02 19 11 31 18
    935670.04908    729089.10607  21926354.48208  21926359.91407
  -1815407.76507  -1414599.97207  22765915.57107  22765922.25807
 -30811363.58108 -24008844.79608  18068834.19408  18068835.43508
 -14896150.17908 -11607383.46708  19095158.20008  19095160.30208
 -28253560.33709 -22015757.58408  18864645.36109  18864647.43108
  -9105214.21808  -7094962.69808  20766189.97808  20766193.27108
 -16231894.59808 -12648216.71208  20794534.41608  20794536.68308
 -21719457.37608 -16924268.13408  20903157.00908  20903161.58008
 93 04 16 20 16 00.0000000  0  8 18 15 16 27 02 19 11 31
 -21335381.97308 -16624989.27308  20976244.50408  20976249.24808
  -2114450.64907  -1647619.87007  22709009.24707  22709015.68407
   1055028.66808    822095.35708  21949067.95608  21949073.67308
 -30951563.08908 -24118091.17408  18042155.07908  18042156.31808
 -15065571.80108 -11739400.26308  19062918.30708  19062920.30608
 -28160326.62508 -21943108.03108  18882387.17308  18882389.32308
  -8971660.50808  -6990894.95508  20791604.49208  20791607.69508
 -15944827.44508 -12424528.17708  20849161.57708  20849163.86508
 93 04 16 20 18 00.0000000  0  8 18 15 16 27 02 19 11 31
 -20950987.04908 -16325461.45808  21049392.97808  21049397.86208
  -2413544.12207  -1880679.25307  22652093.19807  22652099.72307
   1177448.06708    917486.55608  21972363.89108  21972369.87008
 -31089180.60608 -24225325.61308  18015967.33908  18015968.59908
 -15232899.65508 -11869785.53608  19031076.70808  19031078.82808
 -28065067.95508 -21868880.58808  18900514.44208  18900516.52708
  -8831218.52708  -6881459.74308  20818329.79108  20818333.10408
 -15653912.50808 -12197841.36908  20904520.98208  20904523.28508
 93 04 16 20 20 00.0000000  0  8 15 31 27 02 16 18 11 19
  -2711060.60307  -2112510.00807  22595477.58707  22595483.66307
 -15358103.69808 -11967341.16408  20960811.56308  20960814.18508
 -31222890.75408 -24329515.35308  17990523.24508  17990524.40008
 -15397354.46308 -11997932.07908  18999781.99708  18999784.15708
   1304963.81308   1016848.93607  21996629.69808  21996635.66307
 -20564955.41208 -16024658.29108  21122852.81908  21122857.84708
  -8682558.86308  -6765621.14308  20846618.75908  20846622.20308
 -27965995.96708 -21791681.74008  18919367.28308  18919369.40008
 93 04 16 20 22 00.0000000  0  8 15 31 27 02 16 18 11 19
  -3005645.32307  -2342056.27307  22539419.68307  22539425.77607
 -15055909.83008 -11731865.61208  21018317.14308  21018319.73608
 -31351372.59208 -24429631.06808  17966073.97008  17966075.17908
 -15557364.59208 -12122615.24708  18969333.06908  18969335.14408
   1438030.20708   1120536.50908  22021951.82808  22021958.08208
 -20176017.02208 -15721590.16008  21196865.83708  21196871.16208
  -8524629.76708  -6642559.61208  20876671.73808  20876675.24308
 -27862058.08308 -21710691.28108  18939146.07508  18939148.27808
 93 04 16 20 24 00.0000000  0  8 15 31 27 02 16 18 11 19
  -3297407.65207  -2569403.22407  22483898.94307  22483904.99807
 -14748043.60108 -11491970.07208  21076902.35608  21076904.94208
 -31474597.49808 -24525650.46208  17942624.99408  17942626.22508
 -15713262.51208 -12244094.11008  18939666.64608  18939668.69708
   1576144.65308   1228157.57008  22048234.32408  22048241.14108
 -19784868.01708 -15416799.51008  21271299.51308  21271305.05708
  -8357850.35708  -6512601.75808  20908408.85608  20908412.47108
 -27753701.72708 -21626257.85908  18959765.59408  18959767.84908
 93 04 16 20 26 00.0000000  0  8 15 31 02 27 16 18 11 19
  -3587418.45107  -2795385.27707  22428711.36707  22428717.50307
 -14436113.78808 -11248908.11708  21136260.66108  21136263.39108
 -15866758.59708 -12363701.39708  18910457.28208  18910459.28208
 -31593978.24208 -24618674.41008  17919907.63408  17919908.77308
   1718058.23408   1338738.98808  22075240.21208  22075246.88008
 -19393280.91208 -15111667.50908  21345816.81908  21345822.50008
  -8183605.96408  -6376826.99508  20941566.54708  20941570.09108
 -27641875.67108 -21539120.78908  18981045.43708  18981047.75608
 93 04 16 20 28 00.0000000  0  8 15 02 11 31 27 16 18 19
  -3874715.68008  -3019252.78707  22374040.22708  22374046.15007
 -16016973.60908 -12480751.99808  18881872.32008  18881874.24708
  -8001251.83508  -6234732.92808  20976267.46108  20976270.98608
 -14119364.13408 -11002090.45808  21196536.38608  21196539.18908
 -31708528.01708 -24707933.98008  17898109.50208  17898110.68908
   1864257.62008   1452659.97308  22103061.53208  22103068.33308
 -19000076.62808 -14805275.43108  21420641.76108  21420647.79008
 -27525863.59508 -21448721.88708  19003121.97208  19003124.27708
 93 04 16 20 30 00.0000000  0  8 15 02 11 31 27 16 18 19
  -4158218.22308  -3240163.34407  22320091.16308  22320096.78607
 -16162982.68108 -12594525.26808  18854087.60608  18854089.60908
  -7810032.17208  -6085730.67108  21012655.51908  21012658.91008
 -13797045.15608 -10750933.10508  21257871.78008  21257874.72908
 -31817336.43808 -24792719.78308  17877403.98508  17877405.13508
   2015742.95608   1570699.89907  22131888.71008  22131895.52407
 -18604881.77208 -14497332.29008  21495845.65208  21495851.78208
 -27404927.66008 -21354486.22308  19026135.47608  19026137.78008
 93 04 16 20 32 00.0000000  0  8 15 02 11 31 27 16 18 19
  -4438349.18507  -3458446.77308  22266783.57107  22266789.55608
 -16305172.47008 -12705322.48608  18827029.81708  18827031.77008
  -7610696.71608  -5930404.45108  21050587.81208  21050591.25308
 -13470301.69508 -10496328.09008  21320049.20108  21320052.21908
 -31921057.42108 -24873541.33608  17857666.50208  17857667.72108
   2171630.88808   1692170.39207  22161553.65008  22161560.45807
 -18208669.52508 -14188596.41908  21571242.90008  21571249.35008
 -27279409.29808 -21256679.83508  19050020.91608  19050023.25808
 93 04 16 20 34 00.0000000  0  8 15 02 11 31 27 16 18 19
  -4715669.45207  -3674540.10507  22214010.91307  22214016.59907
 -16444301.56008 -12813734.72708  18800554.40408  18800556.41108
  -7404136.96608  -5769448.95608  21089894.98308  21089898.53608
 -13139628.46908 -10238660.89908  21382974.46208  21382977.53308
 -32020271.76708 -24950851.21908  17838786.62908  17838787.88108
   2330717.13208   1816133.10207  22191827.18508  22191834.15007
 -17811762.35708 -13879319.04608  21646772.43008  21646779.18908
 -27150034.43208 -21155868.39508  19074640.17008  19074642.51008
 93 04 16 20 36 00.0000000  0  8 15 02 11 31 27 16 18 19
  -4990512.30107  -3888702.98507  22161709.84707  22161715.60607
 -16581325.05708 -12920506.23508  18774479.64408  18774481.58508
  -7191020.96208  -5603384.69608  21130449.86408  21130453.31408
 -12805832.56408  -9978560.48408  21446494.04708  21446497.08208
 -32115280.22508 -25024883.77408  17820707.16308  17820708.37808
   2492307.26808   1942046.88507  22222577.23608  22222584.53307
 -17415144.95008 -13570267.50808  21722246.91808  21722253.85008
 -27017659.69408 -21052719.39708  19099830.31408  19099832.72608
 93 04 16 20 38 00.0000000  0  8 15 02 11 31 27 16 18 19
  -5261655.46207  -4099982.91607  22110112.64107  22110118.26207
 -16715124.49108 -13024765.48208  18749018.40808  18749020.34808
  -6970464.05008  -5431522.32008  21172420.29308  21172424.04308
 -12468101.28208  -9715393.53208  21510762.34308  21510765.42608
 -32205115.11408 -25094884.97808  17803612.13008  17803613.32208
   2657614.98807   2070857.47107  22254034.71707  22254042.21907
 -17017993.61608 -13260799.94708  21797823.20708  21797830.22908
 -26880886.02608 -20946142.65508  19125857.53708  19125859.98008
 93 04 16 20 40 00.0000000  0  8 15 02 11 31 27 16 18 19
  -5528760.68807  -4308116.41607  22059283.63207  22059289.22007
 -16845534.21209 -13126383.40608  18724202.29309  18724204.16308
  -6742467.23908  -5253862.65508  21215806.94708  21215810.67308
 -12126404.04408  -9449136.26608  21575785.22508  21575788.76808
 -32289446.47808 -25160597.71808  17787564.40008  17787565.56908
   2826323.31407   2202317.80707  22286139.31307  22286147.02507
 -16620205.46608 -12950836.22108  21873520.49308  21873527.87908
 -26739514.43608 -20835983.11308  19152759.81908  19152762.33008
 93 04 16 20 42 00.0000000  0  8 15 02 11 31 27 16 18 19
  -5792393.97007  -4513544.56707  22009115.77407  22009121.03007
 -16973393.43309 -13226013.94408  18699871.47309  18699873.37408
  -6507940.03208  -5071114.36808  21260436.01508  21260439.74008
 -11781869.97408  -9180668.48808  21641348.22908  21641351.73708
 -32368650.18508 -25222314.88908  17772492.37108  17772493.57408
   2997314.34707   2335556.83407  22318678.31507  22318686.19507
 -16222880.00108 -12641233.05208  21949129.93608  21949137.55508
 -26594500.83108 -20722985.65008  19180355.18008  19180357.56408
 93 04 16 20 44 00.0000000  0  8 15 02 11 31 27 16 18 19
  -6052088.23008  -4715903.37908  21959697.44708  21959702.61408
 -17098603.70509 -13323580.35908  18676044.69209  18676046.54608
  -6266759.49608  -4883181.62708  21306331.30908  21306335.19008
 -11434213.62908  -8909767.72408  21707505.29708  21707508.58208
 -32442943.46808 -25280205.76008  17758354.84808  17758356.03808
   3171100.42707   2470973.86107  22351749.36207  22351757.29407
 -15825448.91308 -12331547.63507  22024759.52508  22024767.26607
 -26445734.66608 -20607064.10008  19208664.51908  19208667.03408
 93 04 16 20 46 00.0000000  0  8 15 02 11 31 27 16 18 19
  -6308813.30008  -4915948.47908  21910843.96108  21910849.04808
 -17222217.36509 -13419902.63808  18652521.74909  18652523.64208
  -6020241.03108  -4691089.47108  21353242.36108  21353246.16808
 -11084664.10408  -8637391.74908  21774022.38608  21774026.01408
 -32513095.74208 -25334869.87008  17745005.29508  17745006.55808
   3346079.13907   2607320.17707  22385047.17007  22385055.48807
 -15429534.00708 -12023043.67307  22100100.42308  22100108.35007
 -26293746.23908 -20488631.71408  19237587.04808  19237589.58508
 93 04 16 20 48 00.0000000  0  8 15 02 11 31 27 16 18 19
  -6561320.56508  -5112706.93908  21862793.21908  21862798.08708
 -17343110.41309 -13514104.95908  18629516.52209  18629518.42908
  -5767482.88108  -4494135.21208  21401340.74308  21401344.46008
 -10732486.06708  -8362967.57808  21841040.06708  21841043.52808
 -32577718.99008 -25385225.65208  17732707.89908  17732709.18608
   3523705.58207   2745729.63207  22418848.82607  22418857.49707
 -15034463.27508 -11715197.58807  22175280.63808  22175289.05307
 -26137787.64508 -20367105.69908  19267265.06508  19267267.74908
 93 04 16 20 50 00.0000000  0  8 15 02 11 31 27 16 18 19
  -6808333.94208  -5305184.56108  21815787.82708  21815792.66608
 -17460347.44009 -13605458.43808  18607207.03809  18607208.97308
  -5507556.39808  -4291595.29108  21450803.37108  21450807.16308
 -10376527.56707  -8085597.66207  21908776.78907  21908780.53107
 -32636215.19608 -25430807.10508  17721576.46708  17721577.73008
   3704374.25707   2886509.59707  22453229.67507  22453238.21107
 -14638956.16108 -11407011.50808  22250544.01308  22250552.92908
 -25976773.42608 -20241640.24908  19297905.22008  19297907.86608
 93 04 16 20 52 00.0000000  0  8 15 02 11 31 27 16 18 19
  -7051179.11908  -5494414.27108  21769575.59808  21769580.40208
 -17575246.46009 -13694990.09408  18585342.45009  18585344.38708
  -5242137.05408  -4084775.23908  21501311.12008  21501314.85008
 -10018937.52408  -7806956.39507  21976824.32408  21976828.04107
 -32689714.39908 -25472494.78008  17711395.89108  17711397.06108
   3886547.11307   3028461.65907  22487896.63207  22487905.53707
 -14244633.29307 -11099748.25207  22325582.28007  22325591.50207
 -25812307.45808 -20113485.11808  19329202.23508  19329204.86408
 93 04 16 20 54 00.0000000  0  8 15 02 11 31 27 16 18 19
  -7290655.16108  -5681018.66408  21724004.63308  21724009.45508
 -17689121.24109 -13783723.63908  18563672.69209  18563674.64008
  -4972371.35308  -3874568.40008  21552645.82708  21552649.79408
  -9660292.78608  -7527493.26607  22045072.40208  22045076.07607
 -32739104.58408 -25510980.63808  17701997.23308  17701998.42908
   4068678.84607   3170381.71107  22522555.65107  22522564.69407
 -13852614.64607 -10794280.49607  22400181.93307  22400191.56007
 -25645219.28008 -19983286.72308  19360998.14008  19361000.85708
 93 04 16 20 56 00.0000000  0  8 15 02 11 31 27 16 18 19
  -7525169.15108  -5863756.60608  21679377.83308  21679382.72608
 -17800598.74509 -13870589.17208  18542459.22009  18542461.11308
  -4697013.24108  -3660003.81708  21605044.91408  21605048.99008
  -9299545.81308  -7246392.06307  22113720.58708  22113724.09707
 -32782993.48008 -25545179.80008  17693645.48508  17693646.67908
   4252127.99207   3313328.35107  22557465.44907  22557474.65907
 -13462050.25107 -10489945.99308  22474504.82707  22474515.04008
 -25473794.66708 -19849709.29008  19393619.28108  19393622.11408
 93 04 16 20 58 00.0000000  0  8 15 02 11 31 27 16 18 19
  -7753358.30208  -6041566.12508  21635954.63008  21635959.36908
 -17908091.36809 -13954349.60908  18522003.99609  18522005.89208
  -4415048.74608  -3440291.42208  21658701.11108  21658705.19108
  -8936032.09907  -6963134.91007  22182895.08707  22182898.66707
 -32819675.27308 -25573763.02308  17686665.20008  17686666.40408
   4438406.95607   3458480.03007  22592913.63007  22592923.02707
 -13071483.23407 -10185609.39307  22548828.29107  22548838.52207
 -25297406.89208 -19712264.44908  19427184.95508  19427187.74808
 93 04 16 21 00 00.0000000  0  8 15 02 11 31 27 16 18 19
  -7976318.29308  -6215300.92808  21593526.84408  21593531.24808
 -18013525.87709 -14036506.33708  18501940.40109  18501942.23808
  -4127919.39008  -3216554.49208  21713339.98008  21713344.25108
  -8570917.92507  -6678630.62807  22252374.26107  22252378.01407
 -32850721.95908 -25597955.26008  17680757.18308  17680758.42208
   4625835.27907   3604527.29306  22628580.72007  22628590.16306
 -12682410.41307  -9882437.07707  22622867.19307  22622877.93807
 -25117458.61408 -19572045.18408  19461428.08208  19461430.92108
 93 04 16 21 02 00.0000000  0  7 15 02 11 31 27 18 19
  -8194179.44308  -6385062.55008  21552069.00308  21552073.38808
 -18116813.79609 -14116990.38908  18482285.31409  18482287.19208
  -3836099.70808  -2989162.74508  21768871.68908  21768876.10608
  -8204550.56307  -6393149.84907  22322091.93707  22322095.80707
 -32876390.87608 -25617957.03208  17675872.54808  17675873.74408
 -12295452.85607  -9580913.01407  22696503.64707  22696514.63307
 -24933378.09408 -19428605.98308  19496457.61208  19496460.42908
 93 04 16 21 04 00.0000000  0  8 15 02 11 31 27 26 18 19
  -8406600.29708  -6550584.95508  21511646.26408  21511650.67908
 -18217706.03709 -14195607.66708  18463086.11909  18463088.01708
  -3539591.28108  -2758117.42408  21825295.30608  21825299.85508
  -7837087.05807  -6106814.90307  22392018.13507  22392021.88407
 -32896153.54208 -25633356.52808  17672111.85808  17672113.06208
         0.14518        -0.19318  21201046.00918  21201048.72118
 -11910203.54307  -9280719.93507  22769815.48707  22769826.54307
 -24745737.64508 -19282392.84108  19532164.41208  19532167.38608
 93 04 16 21 06 00.0000000  0  7 15 02 11 31 27 26 19
  -8612541.22908  -6711058.19108  21472456.99008  21472461.17208
 -18315591.15709 -14271881.72208  18444459.19509  18444461.02808
  -3237694.11208  -2522873.09608  21882744.57408  21882749.18008
  -7467580.13307  -5818887.62207  22462333.11607  22462336.84607
 -32909310.55308 -25643608.76208  17669608.24408  17669609.43908
   -344970.51108   -268808.34408  21135400.08408  21135402.69308
 -24553433.31108 -19132545.51308  19568758.89408  19568761.89208
 93 04 16 21 08 00.0000000  0  8 15 02 11 31 27 26 13 19
  -8812480.48508  -6866854.87308  21434409.47008  21434413.71208
 -18411320.11409 -14346475.66708  18426242.57209  18426244.28808
  -2931225.28608  -2284066.45208  21941064.02308  21941068.71808
  -7096748.04007  -5529927.76007  22532900.10607  22532904.14607
 -32916493.49508 -25649205.88408  17668241.30208  17668242.55008
   -684450.70008   -533338.19708  21070799.08408  21070801.75508
        -0.09817        -0.54017  21873130.77217  21873141.32617
 -24356802.88108 -18979327.22708  19606176.58608  19606179.62008
 93 04 16 21 10 00.0000000  0  8 15 02 11 31 27 26 13 19
  -9006548.62208  -7018076.64008  21397479.66708  21397483.75308
 -18504942.45409 -14419428.11508  18408426.78209  18408428.59108
  -2620650.33608  -2042060.21208  22000164.86208  22000169.20908
  -6725404.01607  -5240568.94307  22603564.68407  22603568.90407
 -32917681.85408 -25650131.89508  17668015.19808  17668016.48108
  -1018442.99208   -793591.76508  21007242.33008  21007244.87908
   -538432.70607   -419557.15907  21770669.38807  21770679.88007
 -24156274.22008 -18823071.35308  19644336.11508  19644339.23708
 93 04 16 21 12 00.0000000  0  8 15 02 11 31 27 26 13 19
  -9194384.51308  -7164442.08508  21361735.23408  21361739.70408
 -18596146.85109 -14490496.45308  18391071.09309  18391072.85208
  -2305940.71308  -1796832.13308  22060052.27908  22060056.70408
  -6353247.80907  -4950577.23907  22674383.82107  22674387.98107
 -32912711.62608 -25646259.00908  17668960.99308  17668962.22608
  -1346583.40908  -1049285.42708  20944799.03408  20944801.64608
  -1076667.02107   -838959.22307  21668245.91407  21668255.91807
 -23951926.68708 -18663839.73808  19683222.31708  19683225.43608
 93 04 16 21 14 00.0000000  0  8 15 02 11 31 27 26 13 19
  -9376182.90208  -7306102.92708  21327139.87408  21327144.28908
 -18685664.37309 -14560250.33008  18374036.48109  18374038.21808
  -1987618.45708  -1548789.03908  22120627.11708  22120631.60408
  -5980904.45407  -4660439.73607  22745238.32407  22745242.79907
 -32901884.01008 -25637821.92008  17671021.44808  17671022.72908
  -1669206.88008  -1300680.20308  20883405.73508  20883408.58308
  -1614843.01807  -1258315.74907  21565833.36807  21565843.05207
 -23744085.28808 -18501885.64808  19722773.41108  19722776.66708
 93 04 16 21 16 00.0000000  0  8 15 02 11 31 27 26 13 19
  -9552647.29808  -7443607.33408  21293559.73408  21293563.94408
 -18774256.51409 -14629283.13408  18357177.93809  18357179.73808
  -1666713.54508  -1298733.49408  22181693.39208  22181698.23708
  -5609292.93007  -4370872.42607  22815953.63907  22815957.94607
 -32886106.59008 -25625527.85608  17674023.81808  17674025.08708
  -1987351.16508  -1548584.69208  20822864.89108  20822867.46908
  -2153602.21307  -1678126.61307  21463309.88307  21463319.18307
 -23533597.87008 -18337869.72908  19762827.95308  19762831.37608
 93 04 16 21 18 00.0000000  0  8 15 02 11 31 27 26 13 19
  -9723023.90608  -7576368.02308  21261137.99508  21261141.86108
 -18861335.58709 -14697136.94908  18340607.29209  18340609.06808
  -1342790.11708  -1046325.86307  22243334.19508  22243338.69907
  -5237771.92207  -4081375.63607  22886651.68007  22886656.23107
 -32864506.33308 -25608696.53608  17678134.22508  17678135.53608
  -2299969.64808  -1792183.35908  20763375.45408  20763377.86208
  -2692127.23107  -2097755.01407  21360830.74907  21360839.68207
 -23319461.13408 -18171010.20008  19803577.02108  19803580.54208
 93 04 16 21 20 00.0000000  0  7 15 11 02 27 13 19 26
  -9886918.95408  -7704078.18308  21229949.45408  21229953.62908
  -1015772.31308   -791506.99407  22305563.65708  22305568.36407
 -18946171.15309 -14763242.57808  18324463.64409  18324465.43608
 -32836747.69108 -25587066.48508  17683416.61508  17683417.86708
  -3229954.71607  -2516839.84007  21258484.15707  21258493.17707
 -23101757.34908 -18001371.15308  19845004.88608  19845008.41008
  -2606402.14808  -2030961.81908  20705063.19908  20705065.59708
 93 04 16 21 22 00.0000000  0  7 15 11 13 02 27 19 26
 -10043818.69908  -7826337.50708  21200092.11308  21200096.52208
   -685455.68008   -534117.68307  22368420.96108  22368425.65807
  -3766493.97508  -2934920.91907  21156383.16308  21156391.57007
 -19028997.38409 -14827782.48008  18308702.32609  18308704.12208
 -32802694.88508 -25560531.88708  17689896.59208  17689897.93608
 -22880125.93208 -17828671.61908  19887180.11808  19887183.71208
  -2906267.60908  -2264623.09508  20648000.53508  20648003.03108
 93 04 16 21 24 00.0000000  0  7 15 11 13 02 27 26 19
 -10193146.23608  -7942696.46408  21171676.18308  21171680.27408
   -351570.28008   -273947.47307  22431957.49308  22431962.17107
  -4301090.64008  -3351488.50707  21054651.89008  21054660.04707
 -19109408.21309 -14890440.23808  18293400.63509  18293402.36608
 -32761875.03008 -25528724.26708  17697664.39608  17697665.82308
  -3199361.84308  -2493008.09608  20592226.43908  20592228.97808
 -22654110.58708 -17652556.05308  19930189.68108  19930193.29808
 93 04 16 21 26 00.0000000  0  7 15 11 02 27 26 13 19
 -10334974.42108  -8053211.81808  21144686.93808  21144691.07608
    -14489.04308    -11286.98207  22496102.11508  22496107.13907
 -19187251.08909 -14951097.00408  18278587.60109  18278589.33908
 -32713987.99008 -25491409.76208  17706777.10908  17706778.46308
  -3485257.81008  -2715784.07508  20537822.20608  20537824.66808
  -4833728.60908  -3766529.99307  20953293.29508  20953301.25607
 -22423748.28108 -17473053.25608  19974026.37808  19974030.02508
 93 04 16 21 28 00.0000000  0  7 15 11 02 27 26 13 19
 -10469426.27708  -8157979.37908  21119101.57108  21119105.44508
    325370.32408    253538.26907  22560775.29708  22560780.40807
 -19262853.51309 -15010007.97008  18264200.94309  18264202.68308
 -32659213.61008 -25448728.50308  17717200.30108  17717201.76108
  -3764297.85808  -2933217.79808  20484722.44808  20484724.94408
  -5364440.74908  -4180070.86807  20852301.40308  20852308.90507
 -22189749.33408 -17290716.72108  20018555.07308  20018558.84608
 93 04 16 21 30 00.0000000  0  7 15 11 02 27 26 13 19
 -10596957.64108  -8257354.35808  21094833.08208  21094837.10508
    667263.88007    519948.61307  22625835.58007  22625840.61607
 -19337069.60109 -15067838.66808  18250078.09209  18250079.81908
 -32598205.79108 -25401190.01908  17728809.85408  17728811.27508
  -4037092.58008  -3145785.01708  20432811.32308  20432813.75508
  -5893586.50408  -4592391.12207  20751607.53708  20751614.70707
 -21952262.81208 -17105662.60208  20063747.50908  20063751.35708
 93 04 16 21 32 00.0000000  0  7 15 11 02 27 26 13 19
 -10717466.08108  -8351256.91108  21071901.16808  21071904.85208
   1011010.61807    787802.97707  22691248.52707  22691253.51307
 -19409690.72509 -15124426.53008  18236258.72209  18236260.44008
 -32531338.75008 -25349085.90308  17741534.26408  17741535.74008
  -4303449.99908  -3353336.13908  20382125.22508  20382127.40508
  -6420961.94208  -5003331.97307  20651250.68308  20651257.40207
 -21711348.60908 -16917937.58308  20109592.13908  20109596.12008
 93 04 16 21 34 00.0000000  0  7 15 11 02 27 26 13 19
 -10830588.83908  -8439404.36308  21050374.26808  21050378.15408
   1356697.56707   1057169.23207  22757030.94507  22757036.00107
 -19480356.34009 -15179490.63308  18222811.52009  18222813.17008
 -32458144.09808 -25292051.18208  17755462.80608  17755464.20008
  -4562715.52908  -3555361.14908  20332788.69508  20332790.88208
  -6946099.43508  -5412529.05207  20551319.48308  20551326.13507
 -21467132.13008 -16727639.36208  20156065.18208  20156069.17508
 93 04 16 21 36 00.0000000  0  7 15 11 02 27 26 13 19
 -10935221.64708  -8520936.23708  21030463.26708  21030467.09208
   1705159.70307   1328697.95007  22823341.28007  22823346.32707
 -19548363.18209 -15232482.97908  18209870.23409  18209871.88308
 -32377499.48908 -25229211.30608  17770809.00908  17770810.44308
  -4814078.67708  -3751228.46508  20284955.64008  20284957.99408
  -7467783.04908  -5819034.88307  20452045.63908  20452052.17407
 -21218555.49808 -16533943.61608  20203368.18908  20203372.19308
 93 04 16 21 38 00.0000000  0  7 15 11 02 27 26 13 19
 -11030812.31008  -8595422.32908  21012272.92308  21012276.66308
   2056688.55807   1602616.36407  22890235.22807  22890240.23707
 -19613255.51209 -15283048.43508  18197521.63609  18197523.30308
 -32288753.36208 -25160058.56308  17787696.93308  17787698.31908
  -5056913.24508  -3940450.13708  20238745.74408  20238748.03208
  -7985342.79908  -6222327.36807  20353556.62708  20353562.98907
 -20965097.51008 -16336444.24708  20251599.85408  20251603.98608
 93 04 16 21 40 00.0000000  0  7 15 02 11 27 26 13 19
 -11117727.02208  -8663147.95008  20995733.68708  20995737.22808
 -19675230.64509 -15331340.74508  18185728.13309  18185729.82108
   2410661.05907   1878439.00307  22957593.88707  22957599.15107
 -32192621.80208 -25085150.94408  17805990.14108  17805991.61808
  -5291506.02708  -4123249.64308  20194104.08708  20194106.31608
  -8499021.73308  -6622595.85408  20255806.38008  20255812.33708
 -20706968.97108 -16135305.47108  20300720.49608  20300724.58408
 93 04 16 21 42 00.0000000  0  7 02 11 27 15 26 13 19
 -19734559.18709 -15377570.76608  18174438.27509  18174440.05608
   2766618.57507   2155808.37107  23025330.15807  23025335.67907
 -32089441.08908 -25004750.48808  17825624.90808  17825626.31608
 -11196178.63408  -8724278.97108  20980804.65708  20980808.28208
  -5518152.56708  -4299857.24608  20150974.71608  20150976.91408
  -9008907.25608  -7019908.43708  20158777.64008  20158783.66908
 -20444923.90308 -15931114.88808  20350586.22208  20350590.54608
 93 04 16 21 44 00.0000000  0  6 02 27 15 26 13 19
 -19791245.50909 -15421741.91208  18163651.28009  18163652.92208
 -31979081.13208 -24918755.81208  17846625.72208  17846627.23608
 -11266159.71308  -8778809.58808  20967487.46408  20967491.25308
  -5736819.61008  -4470247.10108  20109363.70308  20109366.01208
  -9514859.48508  -7414156.11808  20062497.55608  20062503.28008
 -20178751.29908 -15723708.09008  20401237.53208  20401241.90208
 93 04 16 21 46 00.0000000  0  6 02 27 15 26 13 19
 -19845835.42309 -15464279.50608  18153263.13109  18153264.86608
 -31861517.53808 -24827147.92008  17868997.37308  17868999.01208
 -11327752.35908  -8826803.79608  20955766.92408  20955770.39308
  -5947519.29708  -4634428.65708  20069268.79608  20069271.17708
 -10016821.77708  -7805294.79308  19966976.73908  19966982.20708
 -19908956.48108 -15513478.77808  20452578.14308  20452582.62308
 93 04 16 21 48 00.0000000  0  6 02 27 15 26 13 19
 -19898240.75009 -15505114.83108  18143290.77609  18143292.46508
 -31736799.67508 -24729965.27108  17892730.53708  17892732.11808
 -11380954.86708  -8868260.25008  20945642.87808  20945646.32308
  -6150264.64408  -4792412.04408  20030687.71308  20030689.82008
 -10514651.85908  -8193213.55208  19872242.17608  19872247.40708
 -19635390.68608 -15300311.08508  20504636.13808  20504640.86508
 93 04 16 21 50 00.0000000  0  6 02 27 15 26 13 19
 -19948312.11709 -15544131.47908  18133762.44309  18133764.13208
 -31605131.45308 -24627366.76708  17917786.28808  17917787.81208
 -11425587.40608  -8903038.82108  20937149.47808  20937152.94608
  -6344912.86608  -4944085.96808  19993647.36108  19993649.65608
 -11008021.21008  -8577656.39608  19778356.52108  19778361.58008
 -19357966.49308 -15084136.85908  20557428.60808  20557433.27408
 93 04 16 21 52 00.0000000  0  6 02 27 15 26 13 19
 -19995837.86409 -15581164.52608  18124718.62909  18124720.24808
 -31466273.10308 -24519165.57508  17944210.23208  17944211.86508
 -11461255.32708  -8930831.92608  20930361.81908  20930365.64408
  -6530988.80708  -5089080.19508  19958238.35108  19958240.52808
 -11496390.02208  -8958202.78708  19685422.49008  19685427.42508
 -19076487.25908 -14864802.86708  20610992.74808  20610997.68208
 93 04 16 21 54 00.0000000  0  6 02 27 15 26 13 19
 -20040848.26509 -15616237.55908  18116153.46209  18116155.15508
 -31320489.61608 -24405568.19008  17971952.00008  17971953.66508
 -11488245.20008  -8951862.93108  20925225.91008  20925229.74708
  -6708602.94708  -5227480.81708  19924439.33708  19924441.57008
 -11979885.23408  -9334951.63908  19593415.96908  19593420.66608
 -18791510.16708 -14642743.30808  20665222.50008  20665227.35808
 93 04 16 21 56 00.0000000  0  6 02 27 15 26 13 19
 -20083424.41709 -15649413.79308  18108051.42209  18108053.12908
 -31167422.74908 -24286295.44108  18001079.81508  18001081.41008
 -11506625.91208  -8966185.45908  20921728.09608  20921731.69408
  -6878047.12708  -5359515.20408  19892195.29508  19892197.55808
 -12458414.43208  -9707830.93508  19502354.36208  19502358.87208
 -18503000.57208 -14417931.14708  20720124.40508  20720129.59008
 93 04 16 21 58 00.0000000  0  6 02 27 15 26 13 19
 -20123552.61809 -15680682.52608  18100415.27609  18100416.99908
 -31007138.37808 -24161398.65408  18031581.01908  18031582.71708
 -11516214.71308  -8973657.17408  20919903.15508  20919906.86308
  -7038877.50508  -5484837.55008  19861590.20608  19861592.31808
 -12931631.49308 -10076570.97708  19412303.84208  19412308.19608
 -18210856.65508 -14190287.10608  20775718.07208  20775723.13808
 93 04 16 22 00 00.0000000  0  6 02 27 15 26 13 19
 -20161226.73309 -15710038.99008  18093246.20409  18093247.88508
 -30839983.04908 -24031147.88208  18063389.65708  18063391.37308
 -11516974.84208  -8974249.43008  20919758.44908  20919762.23108
  -7191065.42008  -5603425.51008  19832629.78308  19832632.01708
 -13399330.63608 -10441011.39608  19323303.42608  19323307.58708
 -17914967.76308 -13959724.87208  20832024.25208  20832029.45608
 93 04 16 22 02 00.0000000  0  6 02 27 15 26 13 19
 -20196779.46309 -15737742.42308  18086480.77709  18086482.43908
 -30665910.61208 -23895507.14308  18096514.60708  18096516.42408
 -11509357.42308  -8968313.74808  20921208.16008  20921211.72208
  -7335313.82108  -5715826.83908  19805180.28508  19805182.57608
 -13861791.33708 -10801369.98508  19235299.73908  19235303.85508
 -17616015.70508 -13726775.79908  20888913.27808  20888918.89208
 93 04 16 22 04 00.0000000  0  6 02 27 15 26 13 19
 -20230863.51709 -15764301.43808  18079994.75309  18079996.44208
 -30485911.89608 -23755248.54308  18130767.25908  18130769.18408
 -11493656.20008  -8956078.98708  20924195.82108  20924199.43808
  -7471861.57508  -5822227.67708  19779196.05308  19779198.23808
 -14319132.47408 -11157739.32208  19148270.23408  19148274.30908
 -17314590.87908 -13491899.92108  20946273.12608  20946278.63308
 93 04 16 22 06 00.0000000  0  6 19 02 27 15 26 13
 -17010544.19408 -13254981.03608  21004131.71208  21004137.47308
 -20263012.70409 -15789352.75608  18073876.91709  18073878.57608
 -30299691.85408 -23610142.18108  18166203.93608  18166205.74708
 -11469756.07608  -8937455.47808  20928743.64708  20928747.33908
  -7600533.77408  -5922491.71708  19754710.48408  19754712.77708
 -14771057.44708 -11509888.26608  19062271.46408  19062275.45108
 93 04 16 22 08 00.0000000  0  6 19 02 27 15 26 13
 -16703852.73008 -13016001.30208  21062493.68708  21062499.42208
 -20293332.41509 -15812978.51008  18068107.28009  18068109.02508
 -30106918.29408 -23459929.19108  18202887.68608  18202889.57708
 -11437692.79808  -8912471.09108  20934845.24208  20934848.73208
  -7721244.81108  -6016552.24808  19731739.91708  19731742.26408
 -15217420.91708 -11857703.52708  18977331.03608  18977334.88208
 93 04 16 22 10 00.0000000  0  6 19 02 27 15 26 13
 -16394236.87908 -12774742.83508  21121412.14408  21121418.09108
 -20321341.39008 -15834803.69508  18062777.34208  18062779.13008
 -29907684.75608 -23304682.45608  18240800.77308  18240802.66608
 -11397236.53808  -8880946.72408  20942543.84908  20942547.40708
  -7833601.96608  -6104103.25708  19710358.94408  19710361.38508
 -15657805.38708 -12200859.82308  18893528.34808  18893532.00708
 93 04 16 22 12 00.0000000  0  6 19 02 27 15 26 13
 -16082611.20308 -12531918.30108  21180712.96208  21180719.15308
 -20347802.48208 -15855422.73508  18057741.99408  18057743.68308
 -29702597.94608 -23144874.72508  18279827.59908  18279829.47908
 -11348946.77308  -8843318.32908  20951733.05708  20951736.43808
  -7938521.56608  -6185858.76708  19690393.48408  19690395.84308
 -16092581.92408 -12539646.33708  18810792.83408  18810796.33008
 93 04 16 22 14 00.0000000  0  6 19 02 27 15 26 13
 -15769671.18508 -12288069.57608  21240263.63308  21240270.32408
 -20373766.11408 -15875654.13208  18052801.25108  18052802.95708
 -29492622.60708 -22981257.76008  18319784.75908  18319786.71908
 -11293772.38808  -8800325.27508  20962232.61108  20962235.77808
  -8036600.76608  -6262284.14208  19671729.69208  19671731.94108
 -16522507.76808 -12874653.11408  18728980.31508  18728983.90408
 93 04 16 22 16 00.0000000  0  6 19 02 27 15 26 13
 -15454612.34908 -12042569.81408  21300217.98408  21300224.73608
 -20397804.57908 -15894385.40608  18048226.89908  18048228.56508
 -29276652.07008 -22812969.20608  18360882.67208  18360884.60808
 -11230566.53808  -8751073.93407  20974260.07508  20974263.15107
  -8126738.45708  -6332521.32408  19654576.90608  19654579.27208
 -16946243.88208 -13204836.76208  18648345.69908  18648349.31808
 93 04 16 22 18 00.0000000  0  6 15 19 02 27 26 13
 -11159287.33908  -8695531.71207  20987824.17808  20987827.27407
 -15137218.19108 -11795250.33908  21360616.57408  21360623.52408
 -20419888.68908 -15911593.81208  18044024.37208  18044026.12608
 -29054759.23108 -22640065.87508  18403107.63708  18403109.72908
  -8209014.77108  -6396632.75908  19638920.26208  19638922.55608
 -17363550.60708 -13530010.50608  18568934.65708  18568938.07308
 93 04 16 22 20 00.0000000  0  6 15 19 02 27 26 13
 -11079816.51708  -8633606.44408  21002946.77708  21002950.19008
 -14817563.03108 -11546169.10808  21421445.34308  21421452.31008
 -20439865.04308 -15927159.81808  18040222.98808  18040224.77308
 -28826626.99108 -22462300.67608  18446519.88608  18446521.97808
  -8283030.89408  -6454307.69508  19624835.68808  19624837.96608
 -17774108.99708 -13849925.82608  18490807.80208  18490811.17608
 93 04 16 22 22 00.0000000  0  6 15 19 02 27 26 13
 -10992133.49308  -8565282.10108  21019632.68608  21019636.04408
 -14495554.89808 -11295254.32508  21482722.09108  21482729.09608
 -20457723.12608 -15941075.21608  18036824.75408  18036826.50808
 -28592413.12008 -22279796.54808  18491089.35208  18491091.55808
  -8348996.22508  -6505709.30008  19612282.81208  19612285.24308
 -18177701.38508 -14164413.10308  18414006.43108  18414009.71508
 93 04 16 22 24 00.0000000  0  6 15 19 02 27 26 13
 -10896792.77708  -8490990.72807  21037775.39708  21037778.78707
 -14171796.85408 -11042975.98408  21544331.79408  21544339.03808
 -20473424.56508 -15953310.10808  18033836.85308  18033838.59808
 -28352807.43608 -22093091.00908  18536684.92208  18536687.15908
  -8407363.53608  -6551190.36208  19601175.83808  19601178.12708
 -18574680.21308 -14473746.97908  18338463.66508  18338466.92008
 93 04 16 22 26 00.0000000  0  6 15 19 02 27 26 13
 -10793842.00508  -8410769.44807  21057366.34308  21057369.89007
 -13846539.83508 -10789529.59808  21606226.48508  21606233.97308
 -20487333.31408 -15964148.10608  18031190.15008  18031191.84908
 -28107454.38308 -21901906.99208  18583374.27708  18583376.47208
  -8458001.15208  -6590648.29308  19591540.00008  19591542.37408
 -18964889.96908 -14777806.28808  18264209.02908  18264212.28008
 93 04 16 22 28 00.0000000  0  6 15 19 02 27 26 13
 -10682940.41308  -8324352.75007  21078470.08408  21078473.65207
 -13519183.96208 -10534447.78307  21668520.66908  21668528.25907
 -20499418.37908 -15973565.05308  18028890.52108  18028892.21108
 -27856476.39908 -21706339.92008  18631133.98108  18631136.19408
  -8500905.14008  -6624080.02808  19583375.62508  19583377.92908
 -19347787.44408 -15076167.73308  18191345.89108  18191349.12708
 93 04 16 22 30 00.0000000  0  6 15 19 02 27 26 13
 -10564382.93908  -8231970.41707  21101030.87608  21101034.33407
 -13190122.12308 -10278036.67207  21731139.91008  21731147.11907
 -20509341.00108 -15981296.96308  18027002.23308  18027003.97208
 -27599986.45108 -21506477.79908  18679942.49408  18679944.78208
  -8535873.00208  -6651327.76308  19576721.55108  19576723.96008
 -19723459.87508 -15368899.27008  18119857.67608  18119860.71808
 93 04 16 22 32 00.0000000  0  6 15 19 02 27 26 13
 -10438479.04008  -8133863.60707  21124990.05208  21124993.41507
 -12859694.87108 -10020561.54507  21794018.50408  21794026.05807
 -20517151.28808 -15987382.89408  18025515.96108  18025517.67008
 -27338091.39308 -21302403.92808  18729779.57308  18729782.01308
  -8563512.39408  -6672865.01108  19571462.04908  19571464.40808
 -20092011.88308 -15656082.43608  18049724.47308  18049727.41108
 93 04 16 22 34 00.0000000  0  6 15 19 02 27 26 13
 -10304730.43808  -8029644.04907  21150441.52908  21150445.17707
 -12527586.82408  -9761776.79907  21857217.14508  21857225.16907
 -20522804.67208 -15991788.12908  18024440.20508  18024441.92608
 -27070587.50008 -21093959.54108  18780684.11508  18780686.54008
  -8583329.55708  -6688307.01108  19567691.03808  19567693.44408
 -20452741.48008 -15937170.21008  17981079.67008  17981082.61608
 93 04 16 22 36 00.0000000  0  6 15 19 02 27 26 13
 -10164122.60508  -7920079.63907  21177198.40608  21177202.12007
 -12194598.56108  -9502306.17607  21920583.01508  21920591.47707
 -20526648.54408 -15994783.36408  18023708.77608  18023710.42508
 -26798367.36308 -20881840.17508  18832485.98008  18832488.45308
  -8596315.51808  -6698426.00108  19565219.76708  19565222.18108
 -20806432.14708 -16212773.09408  17913774.39408  17913777.19608
 93 04 16 22 38 00.0000000  0  6 15 19 02 27 26 13
 -10017297.74507  -7805670.75707  21205138.19407  21205141.94407
 -11861471.37207  -9242727.36107  21983975.52507  21983984.33507
 -20529504.13108 -15997008.50808  18023165.29308  18023166.99508
 -26522274.37408 -20666702.99808  18885024.93508  18885027.46108
  -8602739.41208  -6703431.70108  19563997.44808  19563999.84508
 -21153518.37808 -16483229.68008  17847725.89608  17847728.67308
 93 04 16 22 40 00.0000000  0  6 15 19 02 27 26 13
  -9864078.23207  -7686279.04607  21234295.17707  21234298.75507
 -11528001.69207  -8982881.71107  22047433.37007  22047442.39007
 -20531008.49508 -15998180.73408  18022879.04608  18022880.66108
 -26242059.45908 -20448353.94908  18938348.21008  18938350.85108
  -8602692.94208  -6703395.57708  19564006.30808  19564008.75708
 -21493621.92508 -16748245.21508  17783006.21808  17783008.93808
 93 04 16 22 42 00.0000000  0  6 15 19 02 27 26 13
  -9703683.19907  -7561296.04507  21264817.38407  21264821.19607
 -11192965.56908  -8721815.55207  22111189.62308  22111198.33107
 -20530153.10008 -15997514.19108  18023041.87808  18023043.47808
 -25956831.53808 -20226098.67108  18992625.50008  18992628.18208
  -8595306.17908  -6697639.75508  19565412.18808  19565414.67308
 -21825758.45508 -17007052.69208  17719802.48608  17719805.28808
 93 04 16 22 44 00.0000000  0  6 15 19 02 27 26 13
  -9536197.12407  -7430787.62308  21296689.07307  21296693.08008
 -10857186.42707  -8460170.39007  22175086.78107  22175095.80407
 -20526852.54608 -15994942.32708  18023669.86308  18023671.48608
 -25666448.30408 -19999826.28508  19047883.67908  19047886.52808
  -8580674.33108  -6686238.39808  19568196.61408  19568198.96208
 -22149810.53308 -17259560.61108  17658137.31108  17658140.03608
 93 04 16 22 46 00.0000000  0  5 15 02 13 27 26
  -9361717.40907  -7294829.64907  21329891.68707  21329895.67607
 -20521285.19708 -15990604.12908  18024729.29308  18024731.06708
 -22465675.63208 -17505689.06508  17598030.05608  17598032.70608
 -25371189.42008 -19769754.70708  19104069.85108  19104072.61608
  -8558704.10108  -6669118.82208  19572377.31908  19572379.88808
 93 04 16 22 48 00.0000000  0  5 15 02 13 27 26
  -9180555.02207  -7153664.28407  21364365.65707  21364369.62207
 -20513372.09708 -15984438.08008  18026235.21808  18026236.90508
 -22773466.59308 -17745525.97408  17539459.20408  17539461.83508
 -25071474.81008 -19536211.11708  19161103.82508  19161106.75108
  -8530072.47008  -6646808.56408  19577825.94208  19577828.34108
 93 04 16 22 50 00.0000000  0  6 15 24 02 13 27 26
  -8992615.12307  -7007217.77707  21400129.89707  21400133.74807
        -0.47217         0.49517  21997365.40517  21997376.48617
 -20503273.59208 -15976569.15008  18028156.88408  18028158.50108
 -23072892.71308 -17978844.85308  17482480.16708  17482482.80108
 -24767300.92208 -19299192.77208  19218986.43708  19218989.47608
  -8494512.27308  -6619099.43408  19584592.92708  19584595.34008
 93 04 16 22 52 00.0000000  0  6 15 24 02 13 27 26
  -8797780.35607  -6855398.66107  21437205.74207  21437209.79607
   -499727.43307   -389394.99607  21902268.99007  21902279.26907
 -20489953.54208 -15966189.92408  18030691.60008  18030693.34008
 -23363644.26208 -18205404.34308  17427151.85508  17427154.44408
 -24458308.32308 -19058419.57208  19277785.91108  19277788.87508
  -8451613.14008  -6585671.68108  19592756.28508  19592758.86808
 93 04 16 22 54 00.0000000  0  6 15 24 13 02 27 26
  -8596859.70707  -6698837.31007  21475439.86907  21475443.81407
  -1001894.71507   -780692.17707  21806708.13707  21806718.03407
 -23646339.84808 -18425686.46608  17373356.55608  17373359.04908
 -20474613.69508 -15954236.81108  18033610.72208  18033612.41208
 -24145405.27008 -18814599.27008  19337329.50908  19337332.70108
  -8402506.91008  -6547407.22708  19602100.95908  19602103.67708
 93 04 16 22 56 00.0000000  0  6 15 24 02 13 27 26
  -8390320.68607  -6537897.95007  21514742.85307  21514747.01907
  -1507063.02507  -1174327.95707  21710576.31607  21710585.95107
 -20457528.37308 -15940923.57508  18036861.88808  18036863.63708
 -23921257.07208 -18639907.52508  17321041.39008  17321043.88908
 -23828911.28408 -18567980.84208  19397556.43908  19397559.69908
  -8347636.18908  -6504650.95108  19612542.70408  19612545.18808
 93 04 16 22 58 00.0000000  0  6 15 24 02 13 27 26
  -8178040.85907  -6372485.27407  21555138.52607  21555142.64307
  -2013930.67707  -1569288.03407  21614121.41307  21614130.53807
 -20438296.28008 -15925937.52808  18040521.64608  18040523.35108
 -24188089.75508 -18847828.94708  17270264.71608  17270267.14808
 -23508639.67408 -18318418.82708  19458502.36908  19458505.66608
  -8286667.59208  -6457143.07808  19624144.78808  19624147.39008
 93 04 16 23 00 00.0000000  0  5 02 24 13 27 26
 -20416388.61508 -15908866.62808  18044690.57308  18044692.26108
  -2522147.96907  -1965299.72207  21517409.62507  21517418.33907
 -24446300.28008 -19049031.82208  17221128.76408  17221131.21608
 -23184587.38408 -18065910.85008  19520167.64908  19520171.17108
  -8219099.73208  -6404492.92408  19637002.56108  19637005.29408
 93 04 16 23 02 00.0000000  0  7 15 02 24 12 27 26 13
        -0.22217        -0.64317  21639347.03417  21639351.14017
 -20392054.06208 -15889904.65208  18049321.28008  18049323.00608
  -3032149.49408  -2362701.71507  21420358.24008  21420366.58807
        -0.01717        -0.68716  21884918.48617  21884923.88616
 -22857170.80908 -17810781.35908  19582473.37208  19582476.77308
  -8145763.37008  -6347347.85408  19650958.11108  19650960.94708
 -24696040.65208 -19243634.58408  17173604.68908  17173607.09108
